[{"header": {"dx": 0.06612293990616946, "dy": 0.0552356325346848, "nx": 98, "ny": 59, "la1": 35.046912555036876, "la2": 31.78801023549047, "lo1": -121.43107172385933, "lo2": -114.95102361305473, "refTime": "2026041604", "parameterCategory": 1, "parameterNumber": 2}, "data": [11.0, 10.73, 10.73, 11.02, 10.74, 10.76, 10.77, 10.47, 10.13, 10.11, 9.48, 8.49, 10.52, 10.79, 10.8, 10.4, 11.62, 11.18, 11.62, 12.52, 12.96, 12.96, 11.62, 11.18, 11.18, 11.62, 11.45, 3.96, 0.0, 0.0, 0.0, 0.0, 3.04, 2.71, 4.6, 5.9, 6.64, 7.51, 6.64, 4.6, 3.11, 5.0, 6.45, 8.53, 10.59, 12.52, 15.12, 12.99, 11.99, 6.88, 9.42, 10.43, 11.36, 11.06, 11.63, 12.11, 12.86, 13.33, 13.2, 13.19, 13.19, 13.39, 13.39, 12.79, 12.39, 12.99, 13.15, 13.15, 13.97, 14.39, 14.13, 13.42, 14.24, 14.44, 14.95, 14.6, 14.1, 13.82, 14.5, 14.71, 12.79, -0.0, -4.1, -0.0, 12.07, 11.28, 11.45, 10.6, 10.96, 4.15, 2.06, 2.63, 2.72, 5.48, 7.59, 7.36, 5.8, 5.8, 10.73, 10.73, 10.73, 11.02, 10.74, 10.76, 10.47, 10.47, 10.13, 10.13, 9.17, 8.78, 9.17, 10.01, 11.6, 11.45, 10.73, 12.07, 12.07, 0.0, 0.0, 5.8, 12.3, 12.96, 10.73, 11.18, 11.03, 3.82, 0.0, -3.04, -2.81, 0.0, 0.0, 2.39, 3.6, 6.32, 5.69, 7.67, 8.05, 7.27, 6.44, 6.0, 7.54, 8.01, 10.75, 13.49, 12.99, 13.44, 5.46, 8.57, 10.43, 10.75, 11.36, 11.3, 11.76, 12.65, 13.02, 13.2, 13.59, 13.19, 13.56, 13.39, 12.79, 12.79, 12.79, 12.93, 13.35, 13.35, 13.8, 14.39, 14.52, 14.13, 14.86, 14.19, 14.19, 13.77, 13.77, 13.82, 14.5, 14.71, 12.79, -0.0, -4.1, -0.0, 12.07, 11.28, 11.45, 10.6, 10.96, 4.15, 2.06, 2.63, 2.72, 5.48, 7.59, 7.36, 5.8, 5.8, 10.34, 10.73, 10.73, 10.73, 11.02, 10.74, 10.47, 10.77, 10.45, 9.84, 8.87, 7.26, 9.17, 9.42, 10.4, 11.03, 11.62, 10.4, 5.4, 0.0, 0.0, 0.0, 3.96, 7.44, 11.53, 10.41, 10.41, 7.59, 0.0, -4.32, -5.48, -2.98, 0.0, 0.0, 3.8, 6.32, 7.28, 7.44, 7.56, 8.93, 7.95, 6.7, 7.9, 8.56, 10.12, 11.72, 12.71, 7.44, 9.6, 9.89, 10.75, 10.75, 10.75, 11.36, 11.52, 12.82, 13.13, 13.8, 13.56, 13.89, 13.89, 13.2, 12.79, 12.79, 12.79, 13.2, 13.77, 13.99, 13.99, 13.9, 13.9, 14.61, 14.73, 14.31, 14.1, 14.1, 14.86, 14.75, 14.13, 14.71, 12.79, -0.0, -0.0, 5.4, 11.62, 11.4, 10.27, 11.18, 2.71, -0.0, -0.0, 2.89, 2.89, 3.58, 2.81, 2.2, 3.56, 4.93, 10.34, 10.34, 10.73, 10.73, 10.74, 10.74, 10.76, 10.76, 10.47, 9.84, 8.87, 7.6, 7.68, 8.22, 10.4, 11.28, 11.28, 11.45, 5.2, 0.0, 0.0, 0.0, 0.0, 0.0, 2.93, 9.17, 8.55, 6.95, 0.0, -4.15, -4.75, -3.81, -4.95, 0.0, 3.04, 7.59, 7.27, 8.38, 7.27, 7.72, 8.37, 8.72, 9.17, 10.01, 12.04, 12.79, 10.65, 10.86, 10.43, 10.43, 10.43, 11.44, 11.1, 11.1, 11.64, 12.65, 13.19, 13.77, 13.89, 13.35, 13.77, 13.2, 13.2, 12.79, 12.79, 13.62, 13.99, 13.33, 14.33, 15.04, 14.09, 13.99, 14.53, 14.08, 14.03, 13.82, 14.75, 15.2, 15.18, 13.86, 13.15, -0.0, 4.1, 8.22, 11.18, 11.4, 11.84, 5.2, -2.71, -0.0, -0.0, -0.0, -0.0, -0.0, -0.0, -0.0, 1.43, 4.39, 10.34, 10.34, 10.34, 10.73, 10.74, 10.74, 10.74, 10.76, 10.47, 9.84, 8.59, 7.22, 7.41, 7.26, 8.94, 9.3, 10.4, 11.03, 8.22, 0.0, 0.0, 0.0, 0.0, 0.0, 0.0, 0.0, 3.96, 0.0, 0.0, -2.02, -3.39, -3.92, -3.68, -2.45, 2.02, 5.63, 7.54, 8.05, 7.36, 7.54, 9.17, 11.6, 13.41, 13.72, 13.44, 12.39, 11.64, 10.86, 10.43, 10.75, 11.2, 10.86, 10.86, 11.2, 12.27, 13.19, 13.43, 13.62, 13.77, 13.35, 13.57, 12.62, 12.79, 13.62, 13.62, 14.79, 14.91, 12.92, 13.56, 15.94, 16.37, 15.58, 16.39, 15.97, 15.12, 12.93, 13.67, 13.99, 13.83, 13.41, 12.58, 5.8, 10.8, 11.18, 11.18, 11.4, 12.07, -5.2, -7.44, -2.98, -2.35, -0.0, -0.0, -0.0, -1.61, -0.0, 2.81, 4.39, 10.08, 10.34, 10.34, 10.08, 10.74, 10.74, 10.74, 10.76, 10.47, 9.84, 8.59, 6.7, 6.7, 8.22, 8.94, 8.94, 7.9, 8.22, 6.71, 3.68, 0.0, -1.5, -3.25, -4.24, 0.0, 0.0, 0.0, 0.0, 0.0, 0.0, 0.0, -2.02, -1.28, 0.0, 1.84, 3.12, 4.58, 7.18, 6.59, 6.71, 10.41, 14.3, 13.67, 14.22, 14.22, 13.19, 11.2, 10.86, 10.12, 10.86, 11.28, 10.65, 11.28, 11.64, 12.9, 13.7, 13.86, 13.99, 13.77, 13.47, 13.15, 12.72, 13.99, 14.03, 14.65, 14.57, 13.76, 12.36, 13.15, 16.54, 19.33, 17.99, 15.97, 16.99, 17.39, 16.26, 13.41, 12.3, 12.86, 12.96, 12.07, 10.4, 9.3, 9.67, 9.3, 8.22, -10.8, -13.41, -12.27, -8.58, -5.8, -1.66, -0.0, -1.61, -1.29, -0.0, 2.81, 5.6, 10.08, 10.08, 10.08, 10.08, 10.36, 10.74, 10.74, 10.47, 10.11, 9.49, 7.96, 5.92, 6.97, 8.73, 10.35, 8.58, 7.9, 8.22, 7.44, 5.54, 2.71, 0.0, -2.19, -2.37, 0.0, 0.0, -1.44, -1.5, -3.44, -2.95, -3.53, -2.39, 0.0, 2.58, 2.94, 3.41, 4.28, 7.44, 8.22, 9.2, 12.52, 12.96, 14.3, 15.2, 15.34, 12.37, 11.38, 11.44, 10.43, 11.53, 11.9, 10.65, 11.64, 12.51, 13.07, 12.87, 13.44, 13.8, 13.88, 13.25, 13.07, 13.01, 14.66, 14.94, 13.23, 12.36, 13.26, 13.18, 13.74, 16.69, 19.51, 18.91, 16.41, 16.05, 16.76, 16.76, 15.08, 13.41, 13.41, 13.41, 11.62, 5.2, 4.48, 4.48, 7.24, 0.0, -13.15, -14.3, -11.44, -6.9, -5.28, -3.25, -1.48, -1.21, -0.0, 1.43, 4.39, 5.99, 9.67, 10.08, 10.08, 10.08, 10.36, 10.74, 10.47, 10.39, 10.11, 9.21, 7.59, 5.48, 6.16, 8.22, 10.04, 8.93, 9.67, 8.53, 8.22, 7.26, 8.94, 10.38, 7.24, 1.5, 0.0, 0.0, -1.45, -3.77, -5.77, -5.0, -3.53, -1.91, 0.0, 2.95, 3.82, 3.53, 2.49, 4.15, 8.85, 8.22, 11.18, 12.07, 12.52, 13.86, 10.43, 8.93, 11.06, 12.87, 11.8, 11.9, 10.41, 11.16, 11.75, 12.39, 12.66, 13.27, 13.27, 13.63, 13.23, 12.81, 11.91, 13.19, 14.23, 12.02, 10.47, 12.01, 14.67, 14.44, 14.51, 15.65, 17.88, 18.33, 16.09, 15.61, 15.17, 14.75, 14.19, 13.07, 12.42, 14.25, 13.86, 6.44, 1.71, 4.93, 7.82, 12.72, 13.41, -0.0, -0.0, -2.13, -3.14, -2.81, -2.63, -1.15, -0.0, 2.72, 4.24, 5.77, 9.67, 9.67, 10.08, 10.08, 10.36, 10.36, 10.1, 10.11, 9.84, 8.83, 7.57, 5.86, 5.27, 5.99, 6.7, 7.85, 7.85, 7.85, 7.26, 6.2, 10.0, 11.62, 11.53, 10.8, 6.21, 3.04, 0.0, -4.4, -5.7, -4.23, -1.14, 0.0, 0.0, 1.23, 0.0, 0.0, 0.0, 0.0, 0.0, 0.0, 12.52, 12.52, 12.52, 13.41, 10.12, 13.15, 14.39, 15.19, 13.1, 12.89, 12.81, 10.55, 11.37, 12.39, 13.15, 13.53, 13.79, 12.91, 12.52, 12.07, 12.52, 15.05, 12.16, 8.68, 10.47, 14.13, 16.27, 15.68, 14.69, 14.23, 15.53, 16.12, 16.05, 15.3, 14.47, 14.26, 13.86, 12.92, 13.38, 15.17, 14.27, 10.47, 4.52, 5.46, 10.41, 12.52, 12.79, 12.71, 10.01, -0.0, -1.43, -2.32, -3.41, -1.33, -0.0, 2.72, 4.58, 4.75, 9.42, 9.42, 9.42, 10.08, 10.36, 10.1, 10.1, 10.11, 9.47, 8.18, 7.55, 7.13, 6.5, 5.8, 5.11, 5.25, 6.15, 5.11, 3.47, 2.42, 2.33, 3.92, 6.76, 7.44, 6.98, 4.15, 2.39, 0.0, -3.98, -2.49, 0.0, 0.0, 0.0, -5.95, -8.22, -6.45, 0.0, 0.0, 0.0, 12.52, 12.07, 11.2, 12.07, 11.62, 11.62, 12.96, 13.41, 14.3, 14.53, 13.58, 12.0, 11.8, 12.13, 12.39, 13.44, 14.19, 13.86, 12.07, 11.18, 12.52, 14.75, 13.76, 8.97, 7.98, 11.38, 15.24, 16.8, 15.61, 13.77, 12.13, 11.8, 13.42, 14.65, 15.27, 15.18, 13.44, 12.85, 11.13, 11.91, 14.27, 15.17, 16.12, 13.23, 13.42, 13.72, 13.31, 13.44, 13.32, 10.73, 2.13, -1.83, -3.04, -3.04, -1.61, -0.0, 3.44, 5.6, 5.6, 9.42, 9.42, 9.42, 10.1, 10.1, 10.1, 10.1, 10.11, 8.81, 8.18, 7.53, 8.18, 8.18, 7.53, 6.0, 5.38, 5.91, 5.21, 4.01, 3.44, 3.07, 2.44, 3.2, 3.23, 3.73, 1.76, 0.0, 0.0, 0.0, 0.0, 0.0, -4.2, -9.83, -9.83, -9.33, -8.22, 0.0, 0.0, 8.22, 12.52, 12.3, 11.87, 10.4, 12.07, 11.62, 11.62, 12.07, 11.87, 10.79, 9.48, 9.44, 10.47, 11.38, 12.36, 13.39, 14.79, 14.79, 13.67, 9.83, 13.41, 9.67, 8.0, 7.4, 7.82, 8.28, 10.25, 11.8, 12.64, 14.75, 12.14, 11.09, 12.81, 14.39, 15.27, 14.56, 12.94, 10.79, 10.27, 13.57, 15.2, 14.61, 13.02, 13.18, 16.82, 15.61, 13.99, 14.11, 13.59, 11.17, 4.98, -0.0, -2.06, -3.96, -1.77, -0.0, 4.1, 4.1, 4.1, 9.42, 9.7, 9.7, 9.7, 10.1, 10.1, 10.1, 9.47, 8.81, 8.18, 8.18, 8.16, 8.81, 8.85, 8.23, 7.59, 6.31, 5.4, 5.03, 5.15, 4.95, 4.91, 3.47, 3.39, 2.2, 0.0, -3.82, -7.6, -10.73, -10.73, -10.0, -10.73, -10.73, -9.75, -9.75, -10.73, -7.59, 11.62, 11.62, 10.8, 10.41, 10.04, 8.22, 11.03, 10.73, 10.28, 10.8, 8.85, 4.1, 4.38, 5.31, 7.4, 10.41, 11.16, 10.66, 12.31, 11.69, 14.66, 10.8, -0.0, 1.97, 5.8, 5.51, 4.23, 3.37, 3.54, 5.42, 5.53, 7.06, 7.6, 10.43, 13.15, 14.75, 14.9, 12.46, 10.47, 11.18, 14.75, 15.65, 14.84, 12.87, 12.36, 14.13, 15.63, 16.1, 16.88, 15.59, 13.84, 12.0, 8.66, 5.6, -0.0, -1.91, -1.91, -0.0, 2.54, 2.54, 2.13, 9.17, 9.45, 9.7, 9.7, 10.1, 10.1, 9.83, 9.47, 8.56, 8.18, 8.18, 8.56, 8.81, 9.21, 9.5, 9.19, 8.79, 8.21, 8.38, 8.78, 10.58, 12.74, 13.59, 14.23, 14.25, 13.77, 13.41, 12.96, -8.53, -9.64, -11.18, -11.18, -10.73, -9.75, -9.2, -7.27, -7.27, -0.0, -0.0, 5.0, 8.22, 9.67, 9.3, 9.83, 10.28, 10.73, -0.0, -0.0, 5.8, 6.0, -0.0, 6.0, 6.4, 6.8, 7.6, 12.96, 14.22, 18.24, 16.09, -3.82, -1.46, 2.52, 3.92, 2.28, -0.0, -0.0, 1.39, 3.54, 5.96, 9.63, 12.0, 12.21, 12.79, 11.62, 9.7, 11.46, 14.75, 11.38, 11.38, 12.92, 12.57, 14.18, 15.41, 15.69, 14.13, 15.84, 17.86, 15.99, 12.87, 9.31, 8.87, 4.32, -0.0, -0.0, -0.0, 2.54, -0.0, 2.2, 9.04, 9.45, 9.45, 9.7, 9.7, 10.1, 9.73, 9.47, 8.56, 8.43, 8.43, 8.83, 8.83, 9.48, 9.84, 9.21, 9.48, 9.92, 10.02, 10.82, 12.18, 12.96, 14.15, 14.4, 14.22, 14.21, 13.75, 13.63, 12.72, -12.52, -10.73, -10.73, -11.18, -9.83, -6.95, -4.4, -0.0, -0.0, 4.6, 7.59, 10.73, 10.28, 10.73, 10.28, 9.83, 10.28, -0.0, -0.0, 11.62, 12.52, 12.52, 0.0, 0.0, 12.07, 12.52, 0.0, 15.65, 19.22, 20.82, -0.0, -3.98, -0.0, 1.83, -0.0, -0.0, -1.37, -2.87, -0.0, 5.89, 13.68, 13.14, 8.3, -0.0, 10.28, 11.18, 14.75, 11.7, 12.33, 13.05, 14.4, 15.19, 16.05, 15.57, 15.2, 14.84, 15.54, 16.69, 16.39, 13.76, 10.89, 9.42, 6.2, 4.15, 2.45, 2.45, 3.14, -0.0, 2.13, 9.04, 9.45, 9.45, 9.45, 9.45, 9.45, 9.73, 9.2, 8.56, 8.83, 8.83, 8.83, 8.83, 9.21, 9.49, 9.21, 9.17, 9.8, 10.22, 10.65, 11.03, 11.88, 12.79, 13.18, 13.5, 13.44, 13.56, 13.62, 12.85, 11.16, 12.52, 10.28, -0.0, -0.0, -0.0, -0.0, -0.0, -0.0, 5.0, 8.8, 10.28, 10.73, 8.8, 8.8, 9.83, -0.0, -0.0, -0.0, -0.0, 11.18, 0.0, 5.0, 7.59, 9.39, 9.83, 10.73, 0.0, 8.31, 17.78, 9.67, -1.61, -2.54, -0.0, -0.0, -0.0, -0.0, -5.23, -0.0, 7.2, 11.16, -0.0, -4.21, -11.41, -0.0, 6.0, 11.7, 12.33, 13.58, 14.4, 14.85, 15.93, 16.58, 15.55, 13.41, 11.6, 15.2, 15.12, 14.39, 11.38, 10.15, 11.29, 8.83, 5.2, 3.96, 4.24, 2.54, 2.13, 2.13, 9.04, 9.04, 9.45, 9.45, 9.45, 9.45, 9.47, 9.2, 9.09, 8.83, 8.83, 8.83, 8.83, 9.22, 9.21, 8.87, 9.17, 9.48, 10.15, 10.52, 10.9, 11.16, 11.94, 13.33, 13.7, 14.13, 13.59, 13.69, 13.18, 13.01, 13.01, 11.84, 10.28, 10.73, -0.0, -0.0, -0.0, 2.49, 7.59, 10.28, 9.39, 9.39, 10.28, 9.83, 8.8, -0.0, -0.0, -0.0, -0.0, -0.0, 11.18, 11.62, 11.62, 10.73, 9.39, 9.83, 7.27, 9.67, 14.75, 12.22, 3.82, -0.0, 3.68, 8.53, 10.8, 9.17, 12.96, 15.2, 5.09, -0.0, -17.17, -16.79, -13.28, -0.0, 8.43, 11.45, 12.66, 13.28, 14.31, 14.47, 14.47, 14.66, 15.61, 14.31, 10.8, 0.0, 13.01, 11.6, 8.3, 8.31, 11.06, 7.54, 5.11, 4.71, 5.6, 5.4, 3.96, 3.96, 9.04, 9.04, 9.45, 9.45, 9.45, 9.45, 9.47, 9.2, 9.09, 8.83, 8.83, 8.57, 8.85, 8.85, 8.59, 8.59, 9.17, 8.87, 9.8, 10.47, 11.16, 11.37, 11.85, 12.66, 13.83, 14.03, 14.6, 14.6, 14.68, 14.11, 13.15, 12.58, 10.91, 11.18, 6.32, 2.97, 3.11, 7.59, 9.75, 9.83, 9.83, 8.94, 10.28, 8.94, 8.8, -0.0, -0.0, -0.0, 4.6, 7.27, 9.2, 9.6, 10.6, 8.93, 10.41, 9.97, 10.28, 10.73, 11.45, 9.17, 7.82, 6.71, 5.95, 8.93, 10.41, 10.28, 11.62, 11.62, -0.0, -17.43, -21.25, -17.78, -17.88, 9.4, 12.64, 9.32, 10.32, 12.59, 13.29, 12.56, 11.17, 11.48, 12.9, 12.65, 13.88, 11.62, 8.53, 6.67, 8.38, 10.52, 11.03, 8.05, 4.93, 5.11, 6.43, 6.7, 5.6, 5.6, 9.04, 9.04, 9.04, 9.45, 9.45, 9.45, 9.47, 9.2, 9.48, 8.83, 8.83, 8.85, 8.58, 8.59, 8.59, 8.58, 9.19, 9.48, 9.76, 10.37, 10.99, 11.85, 12.13, 12.65, 13.25, 14.24, 15.05, 15.05, 15.03, 15.01, 14.4, 12.96, 12.14, 11.18, 10.18, 9.2, 8.8, 10.28, 9.83, 9.83, 9.54, 9.33, 9.83, 10.28, 9.2, 4.6, -0.0, 4.6, 7.27, 7.27, 8.55, 8.55, 8.55, 9.2, 9.2, 9.2, 9.55, 9.2, 8.73, 8.73, 9.42, 9.3, 9.6, 10.41, 10.73, 9.83, 9.39, 9.2, 3.82, 0.0, -6.36, -10.91, 19.67, 21.04, 13.95, 6.31, 9.48, 13.28, 15.11, 13.96, 13.12, 15.16, 15.99, 12.56, 11.2, 11.2, 9.17, 7.78, 10.73, 11.44, 10.12, 7.78, 5.77, 5.4, 7.19, 7.19, 6.21, 6.21, 8.79, 9.04, 9.04, 9.45, 9.19, 9.19, 9.47, 9.47, 9.48, 9.21, 9.12, 8.85, 8.86, 8.22, 8.23, 9.24, 8.24, 8.87, 9.15, 10.51, 11.87, 13.05, 11.94, 11.99, 11.55, 13.27, 12.49, 13.32, 12.89, 13.29, 13.07, 12.3, 12.31, 12.07, 11.02, 10.41, 10.28, 9.96, 10.84, 10.18, 9.54, 9.97, 10.6, 11.18, 11.03, 7.59, 7.59, 7.27, 7.27, 7.27, 8.55, 8.55, 8.55, 7.27, 6.17, 7.27, 7.27, 7.9, 9.42, 9.97, 9.97, 10.4, 10.0, 9.83, 9.83, 8.4, -0.0, 10.28, 9.96, 13.28, 17.64, 20.12, 22.79, 23.85, 16.12, 14.84, 16.09, 16.54, 16.71, 16.82, 16.88, 17.35, 16.09, 12.52, 13.28, 12.72, 12.72, 11.6, 11.99, 11.99, 8.58, 7.79, 7.02, 7.26, 7.13, 6.4, 8.66, 8.66, 8.79, 8.79, 8.79, 8.79, 8.79, 9.07, 9.07, 9.47, 9.2, 9.21, 9.22, 8.58, 8.22, 8.51, 8.51, 8.24, 7.96, 7.33, 7.93, 9.3, 12.03, 12.74, 12.32, 10.65, 10.03, 10.37, 11.2, 11.69, 12.39, 11.88, 11.62, 12.08, 12.07, 12.07, 11.28, 10.18, 10.73, 10.73, 10.58, 10.2, 10.66, 10.66, 11.11, 11.18, 11.09, 11.28, 8.55, 9.2, 9.2, 8.8, 8.18, 8.55, 7.59, 5.0, 4.4, 5.9, 7.9, 7.59, 8.38, 10.79, 10.38, 10.41, 10.41, 10.73, 9.2, -0.0, -2.49, -0.0, 10.8, 13.01, 16.05, 18.87, 23.21, 25.98, 20.99, 16.26, 13.18, 11.38, 15.54, 16.92, 15.65, 16.54, 15.2, 13.41, 13.86, 13.23, 11.99, 10.79, 12.04, 11.2, 7.44, 8.38, 9.17, 9.17, 7.13, 7.82, 9.22, 9.22, 8.79, 8.79, 8.79, 8.79, 9.07, 9.07, 8.81, 8.81, 9.2, 9.48, 9.22, 8.86, 8.22, 8.51, 8.51, 8.53, 8.17, 7.51, 7.24, 8.66, 10.12, 11.36, 11.69, 11.4, 11.39, 11.36, 11.75, 11.12, 10.65, 10.53, 10.73, 11.28, 11.62, 11.62, 11.4, 10.96, 10.84, 10.73, 10.73, 11.18, 11.18, 11.18, 11.18, 12.07, 11.62, 11.71, 9.33, 9.75, 9.75, 9.2, 8.8, 7.27, 5.95, 2.71, 3.98, 6.17, 6.2, 7.27, 9.08, 10.0, 10.6, 10.6, 10.73, 11.18, -0.0, -2.6, -2.6, -0.0, 5.8, 8.05, 11.06, 15.42, 22.05, 25.0, 19.45, 15.93, 10.13, 9.2, 10.47, 12.0, 15.09, 15.65, 14.69, 13.09, 13.72, 12.45, 10.47, 7.79, 8.05, 8.53, 8.85, 10.73, 12.27, 10.73, 8.31, 8.85, 10.43, 10.43, 8.79, 8.79, 9.07, 9.07, 8.81, 8.81, 8.81, 8.81, 9.2, 9.48, 9.22, 8.86, 8.22, 8.51, 8.51, 8.81, 8.46, 8.15, 8.51, 9.8, 10.43, 10.42, 9.8, 10.39, 11.29, 11.9, 12.5, 11.73, 11.3, 11.45, 11.64, 11.53, 11.62, 11.51, 11.51, 11.09, 11.62, 11.62, 11.18, 11.18, 11.18, 11.18, 11.18, 12.07, 11.18, 10.62, 10.41, 9.33, 9.2, 9.2, 7.27, 3.39, 2.6, 2.71, 2.6, 4.15, 4.58, 6.08, 8.22, 8.58, 9.2, 10.73, 7.9, -0.0, -0.0, -0.0, -2.28, -2.93, -0.0, -0.0, 7.0, 15.27, 19.99, 23.9, 6.95, 7.73, 8.86, 8.4, 8.0, 7.98, 11.77, 16.22, 16.09, 14.42, 13.39, 12.33, 9.48, 7.93, 10.43, 8.53, 10.35, 11.99, 12.79, 11.44, 10.12, 10.12, 11.8, 11.8, 8.81, 8.81, 8.81, 8.81, 8.81, 8.81, 8.81, 8.81, 9.09, 9.21, 9.22, 8.86, 8.86, 8.51, 8.51, 8.81, 8.81, 8.81, 9.46, 10.44, 11.03, 10.35, 9.71, 10.06, 10.65, 11.72, 11.99, 12.52, 12.08, 12.01, 11.8, 11.58, 11.62, 11.62, 11.62, 11.62, 11.62, 11.62, 11.62, 11.62, 11.62, 11.62, 11.62, 11.62, 11.62, 11.18, 10.73, 9.39, 9.39, 9.2, 7.27, 3.39, 3.39, 2.71, 2.6, 2.6, 2.19, 5.11, 7.19, 6.01, 6.64, 7.27, -0.0, -3.68, -2.19, -0.0, -0.0, -2.71, -3.68, -5.6, -0.0, 12.64, -11.8, -13.86, 0.0, 2.28, 4.81, 6.09, 7.23, 6.3, 6.2, 11.06, 15.04, 15.65, 14.64, 13.32, 10.82, 11.17, 13.59, 13.59, 11.26, 11.99, 12.79, 12.79, 10.12, 11.44, 13.57, 13.57, 8.4, 8.4, 8.81, 8.81, 8.81, 8.81, 8.83, 8.83, 8.83, 8.83, 8.85, 8.86, 8.86, 9.16, 8.81, 8.81, 9.09, 9.09, 9.46, 10.12, 10.99, 10.59, 10.23, 10.01, 10.59, 11.16, 11.61, 12.39, 12.36, 12.3, 12.18, 11.84, 11.59, 11.15, 11.18, 11.18, 11.18, 11.18, 11.62, 11.62, 11.62, 11.62, 11.62, 11.62, 11.62, 11.18, 12.52, 11.18, 9.6, 10.0, 8.22, 7.9, 3.39, 3.39, 2.49, -0.0, -0.0, -0.0, 5.8, 7.26, 6.32, 6.64, -0.0, -3.68, -2.19, -0.0, -0.0, -0.0, -0.0, -5.0, 0.0, 11.41, 23.19, 19.91, 11.7, 13.41, 9.48, 4.81, 6.6, 5.64, 5.46, 6.4, 10.43, 12.42, 13.99, 14.75, 14.55, 13.99, 13.03, 11.38, 11.75, 11.16, 11.09, 12.39, 12.79, 13.28, 13.67, 13.67, 8.4, 8.4, 8.81, 8.81, 8.81, 8.56, 8.83, 8.57, 8.57, 8.85, 8.85, 8.85, 8.86, 9.16, 8.78, 9.09, 9.09, 9.17, 9.48, 9.8, 10.39, 10.7, 10.65, 10.59, 11.06, 11.06, 11.61, 11.87, 12.12, 12.58, 12.3, 12.62, 12.3, 11.52, 11.08, 10.7, 11.15, 11.15, 11.14, 11.58, 11.57, 11.57, 11.18, 11.06, 11.02, 10.58, 11.46, 10.73, 9.7, 9.33, 9.2, 10.41, 7.59, 4.8, 3.25, -0.0, -0.0, -0.0, -0.0, 10.41, 10.0, 8.4, -0.0, -3.39, -2.28, -0.0, -0.0, -0.0, -0.0, 11.62, 9.48, 12.73, 21.68, 27.6, 26.29, 18.39, 15.45, 14.84, 11.44, 4.58, 4.66, 6.2, 6.9, 8.05, 10.43, 13.7, 14.75, 13.7, 9.12, 6.16, 9.0, 10.43, 11.44, 12.65, 12.45, 12.87, 13.59, 13.59, 8.16, 8.16, 8.16, 8.56, 8.83, 8.83, 8.83, 8.18, 8.2, 8.2, 8.58, 8.58, 8.86, 9.16, 9.16, 9.17, 9.17, 9.48, 9.48, 9.8, 10.39, 10.7, 10.7, 10.87, 11.16, 11.06, 11.33, 11.33, 11.6, 11.85, 12.3, 12.44, 12.14, 11.71, 11.4, 11.08, 10.63, 10.62, 11.06, 11.14, 11.14, 11.44, 11.12, 10.91, 10.41, 10.62, 11.62, 10.28, 9.74, 9.74, 11.02, 10.38, 11.2, 8.53, 5.0, 3.39, 4.6, -0.0, -0.0, 11.62, 12.07, 11.84, 8.4, -0.0, -0.0, -0.0, -0.0, -0.0, -0.0, -0.0, 10.8, 12.79, 16.92, 24.09, 25.87, 21.95, 17.52, 15.74, 11.62, 3.19, 3.02, 5.46, 6.8, 7.69, 9.16, 14.53, 15.2, 11.52, 6.6, 6.8, 10.61, 11.7, 12.45, 13.68, 12.39, 13.28, 12.87, 12.87, 8.16, 8.16, 8.43, 8.43, 8.43, 8.18, 8.18, 8.18, 8.2, 8.2, 8.2, 8.86, 8.86, 9.21, 9.16, 9.17, 9.17, 9.48, 9.48, 10.11, 10.11, 10.7, 10.35, 10.87, 11.16, 11.06, 11.33, 11.6, 11.85, 12.08, 11.99, 11.72, 11.95, 11.66, 11.66, 11.4, 11.4, 10.96, 10.62, 10.18, 11.05, 11.28, 11.46, 10.52, 10.08, 11.11, 11.18, 10.28, 9.83, 9.83, 10.73, 10.96, 10.08, 9.75, 7.9, 4.8, 4.8, -0.0, -4.2, -10.28, 12.07, 11.02, 10.38, 7.59, 3.04, 2.82, -0.0, -0.0, -0.0, 12.96, 12.3, 11.5, 13.81, 16.99, 18.31, 21.81, 20.74, 18.08, 9.83, 0.0, 1.16, 3.81, 5.99, 5.36, 7.34, 11.52, 15.65, 8.05, 6.8, 9.22, 11.87, 15.2, 15.59, 15.36, 13.89, 13.15, 12.79, 12.79, 8.43, 8.43, 8.43, 8.18, 8.18, 8.18, 8.46, 8.2, 8.2, 8.22, 8.49, 8.49, 8.86, 9.21, 9.5, 8.87, 9.17, 9.17, 9.17, 9.78, 9.78, 10.09, 10.35, 10.65, 10.87, 11.16, 11.06, 11.33, 11.2, 11.33, 11.57, 11.3, 11.52, 11.52, 11.66, 11.23, 11.4, 10.96, 10.96, 10.49, 10.93, 11.33, 11.02, 10.12, 9.79, 10.68, 10.28, 10.28, 9.83, 10.28, 11.18, 10.73, 10.73, 10.28, 10.73, 8.22, 7.9, -0.0, -4.6, -7.27, 11.18, 11.18, 11.02, 9.66, 6.97, 5.6, -0.0, -0.0, 8.53, 9.17, 13.57, 14.03, 12.33, 11.88, 14.9, 19.67, 23.69, 19.22, 12.39, 0.0, 0.0, 2.44, 4.51, 5.99, 6.94, 9.8, 13.19, 3.79, 11.06, 13.19, 13.99, 15.43, 15.84, 16.12, 15.54, 14.3, 13.2, 13.2, 8.18, 8.18, 8.18, 8.18, 8.18, 8.46, 8.2, 8.2, 8.2, 7.95, 8.22, 8.49, 8.86, 8.86, 9.5, 9.21, 8.87, 9.17, 9.48, 9.78, 9.78, 9.76, 10.01, 10.35, 10.65, 10.59, 10.88, 11.17, 11.2, 11.44, 11.16, 11.38, 11.52, 11.52, 11.28, 11.23, 11.23, 10.96, 10.96, 10.49, 10.93, 10.89, 10.78, 11.95, 12.07, 10.28, 9.39, 9.68, 10.08, 10.22, 11.06, 10.58, 10.08, 9.97, 9.6, 10.73, -0.0, -0.0, -0.0, -0.0, 11.18, 11.18, 12.07, 10.41, 8.53, 7.19, 6.2, 3.96, 0.0, 0.0, 12.39, 14.55, 13.77, 10.91, 8.2, 12.26, 17.52, 17.19, 18.41, 12.01, 0.0, 0.0, 3.29, 6.21, 9.17, 13.01, 9.48, 10.43, 14.9, 14.99, 14.55, 14.11, 15.04, 15.12, 16.12, 15.96, 15.11, 15.11, 8.18, 8.18, 8.18, 8.18, 8.46, 8.2, 8.2, 8.2, 7.95, 8.22, 8.22, 8.22, 8.49, 8.86, 9.16, 9.21, 9.19, 9.19, 9.48, 9.46, 9.46, 9.76, 9.76, 10.06, 10.06, 10.59, 10.59, 10.88, 10.79, 11.06, 11.33, 11.16, 11.38, 10.96, 11.09, 11.09, 11.09, 10.8, 10.8, 10.37, 10.32, 10.25, 10.84, 10.28, 10.91, 11.62, 11.09, 9.85, 9.63, 10.27, 10.0, 9.2, 9.55, 8.23, 9.6, 10.73, 4.4, 5.0, -0.0, 11.18, 10.73, 11.18, 11.45, 11.03, 10.04, 5.6, 3.25, 4.52, 7.9, 0.0, 3.39, 11.99, 16.09, 16.93, 13.76, 14.17, 14.62, 14.19, 17.62, 20.12, 20.72, 8.01, 6.76, 9.5, 11.35, 14.19, 12.74, 14.16, 14.75, 14.75, 14.47, 15.34, 15.18, 14.84, 15.61, 16.91, 16.7, 16.7, 8.18, 8.18, 8.18, 8.46, 8.2, 8.2, 8.2, 8.2, 7.95, 8.22, 8.22, 8.22, 8.22, 8.51, 8.87, 8.87, 9.5, 9.19, 9.48, 9.46, 9.46, 9.76, 9.76, 10.06, 10.06, 10.37, 10.37, 10.31, 10.91, 11.06, 11.06, 11.33, 11.16, 11.16, 10.96, 10.46, 10.46, 10.67, 10.18, 10.18, 10.32, 10.25, 10.18, 10.08, 9.8, 10.8, 11.09, 10.18, 9.45, 10.0, 9.2, 8.03, 7.27, 6.44, 7.59, 10.73, 9.2, 8.22, 7.59, 11.18, 11.18, 11.62, 10.8, 11.62, 12.07, 11.62, -0.0, -0.0, 10.8, 9.33, 6.01, 7.9, 15.65, 22.49, 20.97, 16.2, 13.91, 12.45, 15.11, 19.4, 21.86, 19.17, 12.79, 13.41, 13.5, 13.28, 13.49, 13.75, 14.25, 14.75, 14.75, 14.75, 15.2, 15.65, 15.43, 15.87, 16.71, 16.71, 8.18, 8.18, 8.2, 8.2, 8.2, 8.2, 8.2, 8.22, 8.22, 8.22, 8.22, 7.96, 8.22, 8.23, 8.23, 8.59, 9.19, 9.19, 9.48, 9.48, 9.17, 9.46, 9.76, 9.76, 10.06, 10.37, 10.01, 9.73, 10.94, 9.97, 10.91, 11.06, 11.33, 10.92, 10.92, 10.75, 10.24, 10.46, 9.96, 9.96, 9.68, 10.01, 9.9, 10.08, 9.77, 9.81, 10.17, 9.96, 9.86, 10.0, 9.2, 8.03, 8.38, 8.58, 9.75, 10.28, 10.0, 10.0, 9.6, 9.2, 8.53, 8.22, 11.03, 11.18, 11.62, 11.18, 10.28, 11.62, 11.2, 11.71, 9.97, -0.0, 13.86, 18.52, 29.01, 19.53, 11.58, 8.94, 12.03, 16.96, 18.2, 17.88, 15.53, 13.65, 13.99, 14.56, 15.04, 14.35, 14.16, 13.82, 13.86, 14.16, 14.55, 15.11, 15.15, 15.59, 16.04, 16.04, 8.2, 8.2, 8.2, 8.2, 8.2, 8.2, 8.22, 8.22, 8.22, 8.22, 7.96, 7.96, 7.85, 7.85, 8.23, 8.59, 8.87, 8.87, 9.19, 9.19, 9.48, 9.46, 9.42, 9.42, 9.71, 9.77, 9.77, 10.09, 9.82, 10.94, 9.78, 10.35, 10.52, 10.52, 10.52, 10.4, 10.4, 10.24, 10.13, 9.96, 9.45, 9.74, 10.01, 9.9, 10.17, 9.9, 9.9, 9.66, 9.8, 9.6, 8.93, 8.55, 9.3, 9.2, 9.97, 10.73, 10.18, 10.18, 9.2, 7.59, 7.59, 7.59, 10.4, 9.6, 11.18, 11.18, 10.73, 7.27, 8.22, 12.58, 12.07, 7.9, 11.62, 15.27, 27.97, 23.66, 14.47, 8.22, 13.41, 14.3, 16.09, 16.87, 16.31, 16.15, 16.27, 16.3, 15.96, 15.07, 14.21, 13.37, 12.96, 13.09, 12.98, 13.39, 14.07, 15.2, 15.2, 15.2, 7.8, 7.8, 8.2, 8.2, 7.95, 8.22, 8.22, 8.22, 8.22, 8.22, 7.96, 7.96, 7.85, 7.85, 7.96, 8.24, 8.24, 8.87, 9.19, 9.19, 9.48, 9.17, 9.13, 9.42, 9.46, 9.46, 9.77, 9.77, 9.77, 10.04, 9.78, 9.78, 9.97, 10.35, 10.52, 10.13, 10.4, 10.4, 10.13, 9.72, 9.6, 9.45, 9.74, 9.6, 9.9, 9.49, 9.36, 9.66, 9.96, 9.8, 9.6, 10.0, 9.32, 9.45, 10.14, 10.28, 10.28, 9.83, 9.75, 7.59, 5.6, 5.0, 5.0, 7.9, 7.27, 7.59, 10.73, 10.73, 8.22, 11.2, 12.52, 11.2, 12.52, 13.29, 22.18, 25.8, 18.74, 14.99, 12.87, 13.99, 16.07, 16.54, 16.54, 16.99, 16.54, 16.09, 16.09, 15.2, 14.3, 13.41, 12.52, 12.45, 11.99, 12.45, 12.45, 14.58, 15.2, 15.2, 7.55, 7.55, 7.55, 7.95, 8.22, 8.22, 8.22, 8.22, 8.22, 7.96, 7.96, 7.57, 7.85, 7.59, 7.59, 8.24, 8.24, 8.58, 8.87, 9.19, 9.48, 9.17, 9.13, 9.42, 9.71, 9.46, 9.77, 9.77, 9.77, 10.31, 10.04, 9.97, 9.97, 9.97, 9.97, 9.97, 9.97, 10.26, 9.86, 9.86, 9.6, 9.2, 9.34, 9.6, 9.2, 9.49, 8.95, 9.36, 9.2, 9.6, 9.38, 9.77, 9.6, 9.45, 10.18, 10.08, 9.83, 9.83, 9.83, 5.7, 3.11, 5.2, 4.8, 5.0, 5.0, 7.9, 7.59, 11.18, 11.18, 10.8, 12.52, 13.86, 14.3, 15.25, 19.08, 21.42, 20.07, 17.08, 15.94, 17.68, 17.43, 16.8, 15.47, 15.03, 15.57, 14.69, 14.74, 14.75, 13.41, 12.52, 12.47, 12.42, 11.99, 11.62, 12.58, 12.96, 14.55, 14.55, 7.55, 7.55, 7.55, 8.22, 8.22, 8.22, 8.22, 8.22, 7.96, 7.96, 7.96, 7.85, 7.85, 7.59, 7.59, 7.59, 8.24, 8.24, 8.58, 8.87, 8.87, 9.17, 9.13, 9.42, 9.71, 9.46, 9.77, 9.77, 10.09, 10.09, 10.41, 10.04, 9.97, 9.58, 9.58, 9.58, 9.58, 9.58, 9.86, 9.7, 9.32, 9.6, 9.05, 8.8, 9.08, 9.08, 8.8, 9.03, 9.03, 9.2, 9.38, 9.38, 9.2, 9.86, 9.75, 9.64, 9.64, 9.83, 9.83, 7.27, 5.7, 4.96, 7.59, 4.6, 9.2, 10.0, 10.28, 10.73, 11.18, 7.9, 12.96, 12.96, 15.65, 16.94, 19.22, 17.43, 17.4, 19.15, 21.04, 19.16, 19.22, 15.87, 12.3, 12.21, 12.96, 12.71, 12.83, 12.47, 12.47, 12.91, 12.9, 12.86, 12.86, 12.96, 8.85, 4.81, 7.13, 7.13, 7.57, 7.57, 7.57, 7.57, 7.96, 7.96, 7.96, 7.96, 7.96, 8.23, 8.23, 7.85, 7.59, 7.59, 7.87, 7.87, 8.24, 8.24, 8.54, 8.56, 8.56, 8.85, 8.85, 8.82, 9.08, 9.37, 9.66, 9.42, 9.42, 9.73, 9.73, 10.04, 10.04, 9.67, 9.58, 9.58, 9.58, 9.4, 9.4, 9.7, 9.32, 9.32, 8.88, 10.0, 8.55, 9.08, 9.2, 9.2, 9.03, 9.2, 8.93, 9.38, 9.2, 9.32, 8.8, 9.13, 9.64, 9.11, 8.8, 6.95, 5.46, 5.21, 7.27, 6.95, 9.6, 11.18, 9.83, 10.28, 10.73, 10.73, 8.22, 12.96, 14.84, 17.81, 20.65, 17.88, 12.87, 16.33, 22.05, 22.15, 18.69, 15.62, 13.19, 10.8, 10.8, 12.42, 13.19, 12.66, 12.88, 12.88, 12.96, 13.41, 11.16, -0.0, -0.0, 3.56, 7.11, 4.71, 7.16, 7.16, 7.57, 7.57, 7.96, 7.96, 7.96, 8.23, 8.23, 8.23, 7.96, 7.96, 7.87, 7.87, 7.87, 7.87, 8.24, 7.96, 8.24, 8.24, 8.56, 8.85, 8.53, 8.53, 8.82, 9.37, 9.37, 9.66, 9.42, 9.73, 9.73, 9.73, 10.04, 9.67, 9.67, 9.58, 9.58, 9.4, 9.4, 9.02, 9.14, 9.14, 8.55, 10.4, 8.95, 9.08, 9.05, 8.88, 8.67, 9.2, 8.55, 8.99, 9.2, 8.93, 8.8, 8.91, 8.72, 9.11, 8.4, 6.95, 6.95, 6.64, 7.59, 8.4, 9.83, 10.73, 10.73, 10.28, 10.73, 11.18, 11.18, 12.96, 14.75, 16.54, 22.32, 21.63, 14.31, 11.3, 16.51, 18.34, 16.37, 15.08, 15.15, 14.4, 12.39, 12.89, 13.75, 13.86, 13.41, 13.41, 13.41, 11.5, -0.0, -0.0, 1.9, 6.43, 8.05, 7.11, 6.92, 6.92, 7.32, 7.57, 7.57, 8.23, 8.23, 8.23, 8.23, 7.96, 7.96, 8.24, 7.87, 7.87, 7.87, 7.87, 7.96, 7.96, 8.24, 8.24, 7.95, 8.24, 8.53, 8.53, 8.82, 8.82, 9.37, 9.37, 9.66, 9.66, 9.73, 9.73, 10.04, 10.04, 9.67, 9.67, 9.58, 9.4, 9.4, 8.82, 8.82, 8.55, 8.55, 7.68, 10.4, 8.93, 9.14, 8.93, 8.32, 8.42, 8.18, 8.6, 7.96, 8.15, 8.63, 8.4, 7.67, 8.94, 8.4, 8.4, 6.95, 6.64, 5.37, 8.8, 9.2, 10.28, 9.83, 10.28, 10.73, 11.18, 7.9, 11.62, 13.86, 15.65, 17.97, 21.63, 20.85, 15.47, 10.69, 10.65, 12.18, 13.07, 13.38, 13.41, 12.96, 13.86, 14.3, 14.64, 13.75, 13.53, 13.15, 8.66, 3.81, 3.81, 7.44, 8.59, 9.17, 8.05, 6.92, 6.92, 7.19, 7.59, 7.59, 7.96, 8.23, 7.96, 7.96, 8.24, 8.24, 8.24, 8.24, 7.87, 7.87, 7.6, 7.96, 8.24, 7.95, 7.95, 8.24, 8.24, 8.24, 8.53, 8.82, 8.82, 8.82, 9.12, 9.37, 9.66, 9.66, 9.37, 9.37, 9.67, 9.67, 9.67, 9.67, 9.4, 9.4, 8.82, 8.82, 8.55, 8.32, 7.96, 7.61, 9.3, 8.55, 8.03, 7.76, 7.76, 7.81, 7.96, 7.96, 7.76, 7.76, 8.0, 7.6, 8.94, 8.94, 8.4, 8.4, 6.64, 7.59, 6.95, 8.8, 9.2, 9.83, 10.73, 10.28, 5.0, -0.0, 8.22, 9.17, 6.2, 15.65, 16.73, 24.99, 24.39, 13.86, 10.37, 11.8, 13.81, 13.8, 13.41, 13.36, 13.77, 14.16, 14.64, 14.4, 13.96, 13.75, 10.12, 7.13, 8.66, 10.47, 11.12, 12.04, 12.04, 6.94, 6.94, 7.19, 7.59, 7.59, 7.59, 7.96, 7.96, 8.24, 8.24, 8.24, 7.96, 7.96, 7.96, 7.96, 7.96, 8.24, 8.24, 7.95, 7.95, 8.24, 8.24, 8.24, 8.53, 8.53, 8.82, 8.82, 9.12, 9.12, 9.66, 9.66, 9.3, 9.37, 9.37, 9.67, 9.67, 9.67, 9.78, 9.4, 9.4, 8.82, 8.93, 8.55, 8.23, 8.5, 8.82, 8.32, 7.76, 7.51, 7.51, 7.51, 7.15, 7.58, 7.28, 7.37, 7.07, 7.2, 8.49, 8.94, 8.94, 8.91, 8.0, 6.01, 8.8, 8.8, 8.8, 9.2, 10.28, 4.6, -0.0, -0.0, 7.9, 9.17, 3.96, 4.66, 15.61, 21.55, 30.11, 25.19, 17.59, 18.21, 17.77, 17.64, 15.34, 13.11, 13.8, 13.86, 14.3, 14.75, 14.3, 14.3, 13.88, 9.8, 12.72, 12.96, 12.96, 12.96, 12.96, 6.94, 6.94, 6.94, 6.94, 7.59, 7.59, 7.59, 7.96, 7.96, 7.96, 7.96, 7.96, 7.96, 7.96, 7.96, 8.24, 8.24, 8.24, 7.95, 8.24, 8.24, 8.24, 8.24, 8.53, 8.53, 8.53, 9.15, 9.46, 9.12, 9.12, 9.42, 9.66, 9.3, 9.37, 9.37, 9.67, 9.67, 9.46, 9.78, 9.4, 9.19, 9.14, 8.93, 8.58, 8.82, 9.52, 9.27, 8.43, 7.51, 7.15, 7.15, 7.28, 7.28, 7.28, 6.91, 6.52, 7.2, 8.05, 8.49, 8.94, 8.94, 8.48, 8.48, 9.6, 8.8, 8.8, 9.2, 7.59, 3.25, -0.0, 5.0, 10.73, 5.2, 3.14, 3.68, 6.8, 16.74, 23.63, 29.09, 24.1, 20.27, 19.71, 17.41, 16.89, 14.15, 13.5, 14.19, 14.3, 14.16, 13.88, 13.67, 13.15, 13.86, 13.41, 12.96, 12.96, 12.96, 12.96, 6.94, 6.94, 6.94, 6.94, 7.33, 7.6, 7.6, 7.6, 7.96, 7.96, 7.96, 7.96, 8.24, 8.24, 8.24, 8.24, 8.24, 7.95, 7.95, 8.24, 8.24, 8.24, 8.53, 8.85, 8.85, 8.85, 8.85, 9.46, 9.46, 9.12, 9.12, 9.42, 9.08, 9.37, 9.37, 9.67, 9.46, 9.46, 9.78, 9.4, 9.19, 8.82, 9.14, 9.14, 8.93, 8.93, 9.27, 9.03, 8.43, 8.6, 7.96, 7.64, 7.28, 7.28, 7.28, 7.07, 7.89, 8.05, 8.05, 8.49, 8.49, 8.48, 8.48, 8.06, 9.6, 8.8, 8.8, 6.64, 7.27, 4.8, 8.22, 10.28, 10.0, 7.51, 8.38, 10.12, 14.39, 18.33, 22.29, 23.59, 22.73, 22.76, 22.15, 16.95, 15.37, 14.11, 13.89, 14.68, 14.64, 12.72, 12.79, 0.0, 0.0, 11.6, 12.96, 12.52, 12.52, 12.52, 6.94, 6.94, 6.94, 6.94, 7.22, 6.96, 7.33, 7.6, 7.6, 8.24, 8.24, 8.24, 8.24, 8.24, 8.24, 8.24, 7.95, 7.95, 8.24, 8.24, 8.24, 8.24, 8.53, 8.53, 8.85, 8.85, 9.17, 9.46, 9.46, 9.12, 9.12, 9.42, 9.08, 9.08, 9.37, 9.37, 9.46, 9.46, 9.78, 9.78, 9.19, 9.19, 9.52, 9.14, 8.93, 9.27, 9.27, 9.03, 9.03, 8.43, 8.6, 7.96, 7.96, 7.28, 7.28, 7.6, 8.33, 7.89, 8.05, 8.05, 8.49, 8.24, 8.67, 9.11, 8.67, 9.2, 8.8, 8.0, 9.83, 9.2, 10.28, 9.6, 10.4, 10.41, 13.01, 13.86, 15.2, 16.09, 17.82, 17.19, 20.73, 26.08, 26.05, 20.75, 18.18, 14.97, 15.49, 15.68, 14.3, 13.15, 0.0, -5.4, 0.0, 12.52, 12.52, 12.07, 12.07, 12.07, 6.53, 6.53, 6.7, 6.96, 6.96, 6.96, 7.33, 7.61, 7.61, 7.95, 7.95, 7.95, 7.95, 7.95, 7.95, 7.95, 7.95, 8.24, 8.24, 8.24, 8.24, 8.53, 8.53, 8.53, 8.53, 8.85, 9.17, 9.17, 9.46, 9.12, 9.12, 9.42, 9.08, 9.08, 9.37, 9.37, 9.46, 9.46, 9.78, 9.4, 9.19, 9.19, 9.52, 9.52, 8.93, 9.27, 9.27, 9.03, 9.03, 9.03, 8.43, 8.4, 8.21, 7.82, 7.6, 7.81, 8.06, 7.94, 7.89, 8.05, 8.05, 8.49, 8.24, 8.67, 8.67, 9.83, 9.39, 9.39, 9.83, 9.83, 9.75, 10.0, 10.4, 11.87, 12.96, 13.41, 14.3, 15.2, 15.71, 14.03, 15.18, 23.46, 26.89, 23.15, 20.12, 16.39, 14.84, 13.99, -0.0, -11.6, -12.14, -12.52, -12.07, 12.07, 12.07, 12.07, 12.07, 12.07, 6.29, 6.29, 6.29, 6.56, 6.96, 6.96, 6.96, 7.61, 7.61, 7.61, 7.95, 7.95, 7.95, 7.95, 7.95, 8.24, 8.24, 8.24, 8.24, 8.24, 8.24, 8.53, 8.53, 8.53, 8.53, 8.85, 9.17, 9.17, 9.12, 9.12, 9.12, 9.08, 9.08, 9.08, 9.37, 9.14, 9.46, 9.09, 9.4, 9.4, 9.19, 9.52, 9.52, 9.52, 9.52, 9.27, 9.27, 8.67, 9.03, 9.03, 8.63, 8.63, 8.4, 8.0, 8.17, 7.95, 8.17, 7.74, 7.94, 8.05, 7.6, 8.05, 8.49, 8.67, 8.67, 10.28, 9.83, 8.4, 8.8, 8.8, 9.2, 10.73, 11.62, 12.07, 12.52, 13.41, 13.86, 14.11, 13.56, 12.73, 14.46, 18.49, 23.06, 22.53, 21.74, 17.08, 13.97, 7.19, -12.71, -12.35, -12.27, -12.07, -11.62, 11.18, 7.9, 9.6, 9.6, 9.6, 6.29, 6.29, 6.56, 6.56, 6.56, 6.96, 6.96, 7.24, 7.61, 7.61, 7.95, 7.95, 8.24, 8.24, 8.24, 8.24, 8.24, 8.24, 8.24, 8.24, 8.53, 8.53, 8.53, 8.53, 8.53, 8.84, 8.84, 8.84, 9.12, 9.12, 9.42, 9.08, 9.08, 8.82, 9.14, 9.14, 9.09, 9.09, 9.4, 9.4, 9.19, 9.52, 9.52, 9.52, 9.52, 9.65, 9.27, 9.27, 8.67, 9.03, 8.63, 8.63, 8.24, 8.14, 8.3, 8.06, 7.95, 7.74, 7.94, 7.94, 8.05, 7.6, 8.05, 8.49, 8.33, 8.94, 8.0, 8.4, 7.81, 8.18, 9.33, 9.75, 11.18, 12.07, 12.52, 12.96, 13.41, 13.01, 12.27, 12.27, 13.99, 14.79, 15.45, 19.01, 22.84, 18.79, 7.59, -2.49, -5.2, -10.41, -11.45, -11.62, -10.73, 0.0, 6.95, 9.39, 9.39, 9.39, 6.29, 6.56, 6.56, 6.56, 6.31, 6.7, 6.7, 7.24, 7.24, 7.61, 7.61, 8.24, 8.24, 8.24, 8.24, 8.24, 8.24, 8.24, 8.24, 8.53, 8.53, 8.53, 8.53, 8.53, 8.84, 8.84, 8.84, 8.84, 8.84, 9.12, 9.08, 8.82, 8.82, 8.79, 8.79, 8.79, 9.09, 9.09, 9.09, 9.4, 9.4, 9.19, 9.52, 9.52, 9.52, 9.3, 9.27, 9.27, 8.67, 8.67, 9.03, 8.63, 8.24, 8.0, 8.3, 7.76, 7.95, 7.81, 7.74, 7.94, 7.94, 7.6, 7.6, 8.05, 8.05, 8.94, 8.0, 8.4, 8.4, 9.33, 9.33, 8.18, 9.83, 11.18, 12.07, 12.52, 12.96, 12.3, 12.87, 13.19, 13.56, 12.81, 11.88, 15.84, 25.32, 18.68, 10.12, -2.6, -2.6, -0.0, -0.0, -0.0, 11.18, 10.73, -0.0, -2.39, -2.39, -2.39, 6.56, 6.96, 6.56, 6.31, 6.31, 6.31, 6.7, 6.97, 6.97, 6.97, 7.33, 7.9, 8.24, 8.24, 8.24, 8.24, 8.24, 8.24, 8.53, 8.53, 8.53, 8.53, 8.53, 8.53, 8.84, 8.84, 8.84, 8.84, 8.84, 8.52, 8.82, 8.82, 8.49, 8.79, 8.79, 8.79, 9.09, 9.09, 9.09, 9.4, 9.4, 9.4, 9.52, 9.52, 9.52, 9.3, 8.93, 9.27, 9.27, 8.67, 8.67, 8.63, 8.63, 8.14, 8.3, 7.89, 8.06, 7.53, 7.74, 7.74, 7.94, 7.6, 7.6, 7.6, 7.6, 6.94, 9.39, 9.39, 8.91, 9.33, 9.97, 9.75, 9.97, 9.83, 11.18, 11.62, 12.52, 12.96, 13.01, 13.59, 13.57, 13.15, 12.42, 16.66, 27.27, 20.56, 15.27, -3.82, -4.8, -3.39, -0.0, -0.0, -0.0, -0.0, -4.8, -3.65, -3.65, -3.65, 6.96, 6.96, 6.96, 6.7, 6.31, 6.58, 6.97, 6.97, 6.97, 6.97, 6.97, 7.61, 7.9, 8.24, 8.24, 8.24, 8.24, 8.24, 8.53, 8.53, 8.53, 8.53, 8.53, 8.84, 8.84, 8.84, 8.84, 8.52, 8.52, 8.82, 8.82, 8.49, 8.79, 8.79, 8.79, 8.86, 8.86, 8.86, 8.86, 9.09, 9.4, 9.4, 9.4, 9.52, 9.52, 9.3, 8.93, 8.93, 9.27, 8.67, 8.67, 8.63, 8.63, 8.14, 8.0, 7.89, 7.76, 7.95, 7.81, 7.74, 7.52, 7.5, 7.6, 7.6, 7.6, 7.6, 9.39, 9.39, 9.83, 9.39, 9.83, 10.28, 10.28, 10.28, 10.28, 11.18, 12.07, 12.52, 12.96, 12.96, 13.15, 13.15, 14.18, 27.27, 27.72, 19.67, 16.54, 12.96, 11.62, -10.28, -7.9, -2.71, -2.82, -5.2, -5.52, -5.1, -5.1, -5.1, 6.96, 6.96, 6.96, 6.7, 6.7, 6.97, 6.97, 6.97, 6.97, 6.97, 6.97, 7.24, 7.9, 7.9, 8.24, 8.24, 8.53, 8.53, 8.53, 8.53, 8.53, 8.53, 8.53, 8.84, 8.52, 8.52, 8.52, 8.52, 8.52, 8.82, 8.49, 8.49, 8.79, 8.79, 8.79, 8.86, 8.86, 8.86, 8.86, 9.09, 9.4, 9.4, 9.4, 9.19, 9.52, 9.52, 9.3, 8.93, 8.93, 8.88, 8.67, 8.3, 8.24, 8.14, 8.0, 7.89, 7.76, 8.06, 7.53, 7.74, 7.31, 7.52, 7.5, 7.6, 7.6, 7.6, 7.6, 7.6, 10.28, 10.28, 9.75, 8.55, 9.97, 10.28, 7.27, 10.73, 11.62, 11.45, 11.87, 11.87, 12.96, 13.44, 17.97, 26.17, 26.49, 18.72, 14.75, 0.0, 0.0, -11.62, -7.9, -6.2, -5.0, -5.75, -5.95, -5.1, -5.1, -5.1, 6.96, 6.96, 6.96, 6.7, 6.97, 6.97, 6.97, 6.97, 6.97, 6.97, 6.97, 7.24, 7.24, 7.9, 7.9, 8.24, 8.53, 8.53, 8.53, 8.53, 8.53, 8.53, 8.53, 8.52, 8.52, 8.52, 8.52, 8.52, 8.49, 8.49, 8.49, 8.79, 8.79, 8.79, 8.53, 8.86, 8.86, 8.86, 8.86, 8.86, 9.09, 9.4, 9.4, 9.19, 9.19, 9.52, 9.52, 8.93, 8.93, 9.27, 8.88, 8.67, 8.24, 8.24, 8.0, 7.6, 7.89, 7.76, 7.53, 7.81, 7.74, 7.52, 7.5, 7.5, 8.05, 8.05, 8.05, 8.05, 10.28, 9.6, 9.6, 8.93, 10.18, 10.28, 9.33, 8.8, 10.73, 8.22, 6.94, 8.85, 8.85, 13.41, 17.26, 21.59, 25.32, 16.6, 0.0, -3.39, -7.59, -10.6, -7.9, -5.98, -6.97, -6.2, -5.54, -4.88, -4.88, -4.88, 6.56, 6.56, 6.7, 6.7, 6.97, 6.97, 6.97, 6.97, 6.97, 6.97, 6.97, 6.97, 6.97, 7.54, 7.9, 7.9, 8.22, 8.22, 8.22, 8.22, 8.22, 8.22, 8.22, 8.52, 8.52, 8.52, 8.19, 8.49, 8.49, 8.49, 8.49, 8.79, 8.79, 8.79, 8.86, 8.86, 8.86, 8.86, 8.86, 8.86, 9.09, 9.09, 9.02, 8.82, 8.82, 8.82, 9.14, 9.14, 8.93, 9.27, 8.88, 8.88, 8.24, 8.24, 8.14, 8.0, 7.89, 7.76, 7.63, 7.53, 7.81, 7.74, 7.97, 7.94, 7.94, 7.89, 8.33, 8.33, 8.33, 10.18, 7.59, 9.6, 10.18, 10.28, 10.28, 10.28, 10.28, 7.9, 6.45, 3.82, 3.96, 12.79, 17.88, 19.51, 27.14, 24.59, 0.0, -6.45, -10.6, -8.94, -8.22, -6.16, -5.64, -5.77, -5.54, -4.6, -4.6, -4.6, 6.31, 6.31, 6.7, 6.7, 6.97, 6.97, 6.97, 6.97, 6.97, 6.97, 6.97, 6.97, 6.97, 7.26, 7.61, 7.61, 7.61, 8.22, 8.22, 8.22, 8.22, 8.22, 8.52, 8.52, 8.52, 8.19, 8.49, 8.49, 8.49, 8.49, 8.79, 8.79, 8.79, 8.44, 8.5, 8.5, 8.86, 8.86, 8.86, 9.09, 9.09, 9.02, 9.02, 8.82, 8.82, 8.82, 9.14, 9.14, 9.14, 9.27, 8.88, 8.8, 8.4, 8.24, 8.14, 8.0, 7.89, 7.89, 8.06, 7.63, 7.81, 7.81, 7.74, 7.74, 7.63, 8.06, 7.89, 8.06, 8.06, 8.55, 7.27, 7.59, 9.2, 9.83, 9.83, 9.83, 9.33, 8.55, 5.95, 2.82, 0.0, 6.2, 14.84, 19.22, 25.93, 27.72, 17.85, 6.8, -7.9, -7.9, -8.22, -7.14, -5.4, -4.08, -5.0, -4.54, -4.54, -4.54, 6.31, 6.31, 6.7, 6.97, 6.97, 6.97, 6.97, 6.97, 6.97, 6.97, 7.26, 7.26, 7.26, 7.26, 7.26, 7.61, 7.61, 7.61, 8.22, 8.22, 8.22, 8.52, 8.52, 8.19, 8.19, 8.19, 8.49, 8.49, 8.49, 8.44, 8.44, 8.44, 8.44, 8.44, 8.73, 8.73, 8.73, 9.09, 9.09, 9.09, 9.09, 9.02, 8.82, 8.82, 8.82, 8.82, 9.14, 9.14, 9.14, 9.45, 9.05, 8.49, 8.8, 8.4, 8.14, 8.14, 7.89, 7.89, 8.14, 8.06, 7.63, 7.53, 7.81, 8.24, 8.17, 8.17, 8.48, 8.0, 8.0, 8.55, 8.55, 5.7, 4.4, 4.2, 7.81, 7.81, 7.81, 7.81, 7.27, 5.2, 5.6, 6.0, 10.43, 16.19, 23.57, 27.72, 19.67, 15.65, 12.14, -0.0, -6.97, -7.44, -5.4, -4.24, -3.68, -3.68, -3.68, -3.68, 6.31, 6.31, 6.97, 6.97, 6.97, 6.97, 6.97, 6.97, 7.26, 7.26, 7.26, 7.26, 7.26, 7.26, 7.26, 7.61, 7.61, 7.61, 7.91, 8.22, 8.22, 8.52, 8.19, 8.19, 8.19, 8.49, 8.49, 8.49, 8.15, 8.44, 8.44, 8.44, 8.44, 8.44, 8.73, 8.73, 8.73, 8.73, 8.73, 8.73, 9.02, 9.02, 8.82, 8.82, 8.82, 9.14, 9.14, 9.14, 9.14, 9.45, 9.05, 8.66, 8.8, 8.4, 8.25, 8.14, 7.98, 7.98, 7.89, 7.89, 7.76, 8.06, 7.95, 7.95, 8.24, 7.81, 8.22, 8.22, 7.76, 7.76, 7.81, 6.2, 3.25, 2.97, 2.97, 6.64, 6.64, 8.18, 8.55, 9.67, 11.2, 9.48, 11.8, 14.79, 22.43, 27.65, 19.67, 16.05, 14.11, 13.01, 10.41, -2.93, -3.44, -2.81, -2.37, -3.82, -3.82, -3.82, 6.58, 6.58, 6.58, 6.97, 6.97, 6.97, 6.97, 6.97, 7.26, 7.26, 7.26, 7.26, 7.26, 7.26, 7.26, 7.61, 7.61, 7.61, 7.61, 7.6, 7.9, 7.9, 8.19, 8.19, 8.19, 8.49, 8.49, 8.49, 8.15, 8.44, 8.44, 8.44, 8.44, 8.73, 8.73, 8.73, 8.73, 8.73, 8.73, 9.02, 9.02, 9.02, 8.82, 8.82, 9.14, 9.14, 9.14, 9.14, 9.45, 9.45, 9.05, 8.66, 8.93, 8.4, 8.67, 8.25, 8.14, 7.98, 7.98, 7.98, 7.89, 7.76, 8.06, 7.95, 7.95, 7.95, 8.37, 8.22, 7.76, 7.76, 8.15, 6.2, 3.25, 3.39, 2.97, 6.95, 6.95, 8.8, 9.2, 9.6, 11.45, 10.79, 12.27, 13.99, 20.27, 27.65, 21.9, 15.93, 13.99, 13.55, 12.31, 11.62, 1.98, -0.0, -1.13, -2.37, -2.37, -2.37, 6.58, 6.58, 6.58, 6.97, 6.71, 6.71, 6.97, 7.26, 7.26, 7.26, 7.26, 7.26, 7.26, 7.26, 7.26, 7.32, 7.32, 7.6, 7.6, 7.6, 7.6, 7.9, 7.9, 8.19, 8.19, 8.49, 8.49, 8.49, 8.15, 8.44, 8.44, 8.44, 8.44, 8.73, 8.73, 8.73, 8.73, 8.73, 8.73, 9.02, 9.02, 9.02, 8.82, 9.14, 9.14, 9.14, 9.14, 9.45, 9.45, 9.05, 9.05, 8.66, 8.93, 8.4, 8.4, 8.25, 8.25, 8.25, 8.48, 7.98, 7.98, 7.89, 8.06, 8.06, 8.06, 8.06, 8.37, 8.0, 8.0, 8.0, 8.15, 7.21, 5.86, 6.45, 2.97, 6.95, 7.87, 8.8, 9.2, 9.6, 10.4, 10.37, 10.82, 12.81, 17.98, 24.97, 24.09, 18.41, 15.04, 14.1, 13.15, 12.25, 9.17, 1.55, -0.0, -1.55, -1.55, -1.55, 6.58, 6.58, 6.58, 6.97, 6.71, 6.71, 6.97, 7.26, 7.26, 7.26, 7.26, 7.26, 7.26, 7.26, 7.26, 7.32, 7.32, 7.6, 7.6, 7.6, 7.6, 7.9, 7.9, 8.19, 8.19, 8.49, 8.49, 8.49, 8.15, 8.44, 8.44, 8.44, 8.44, 8.73, 8.73, 8.73, 8.73, 8.73, 8.73, 9.02, 9.02, 9.02, 8.82, 9.14, 9.14, 9.14, 9.14, 9.45, 9.45, 9.05, 9.05, 8.66, 8.93, 8.4, 8.4, 8.25, 8.25, 8.25, 8.48, 7.98, 7.98, 7.89, 8.06, 8.06, 8.06, 8.06, 8.37, 8.0, 8.0, 8.0, 8.15, 7.21, 5.86, 6.45, 2.97, 6.95, 7.87, 8.8, 9.2, 9.6, 10.4, 10.73, 11.16, 12.42, 15.27, 20.05, 23.69, 20.6, 18.57, 15.27, 14.11, 12.99, 11.09, 4.98, -0.0, -0.0, -0.0, -0.0]}, {"header": {"dx": 0.06612293990616946, "dy": 0.0552356325346848, "nx": 98, "ny": 59, "la1": 35.046912555036876, "la2": 31.78801023549047, "lo1": -121.43107172385933, "lo2": -114.95102361305473, "refTime": "2026041604", "parameterCategory": 1, "parameterNumber": 3}, "data": [-14.66, -14.3, -14.3, -14.08, -13.73, -12.56, -11.96, -11.63, -11.33, -10.74, -10.11, -9.2, -9.02, -7.19, -5.4, -5.2, 0.0, 0.0, 0.0, 0.0, 0.0, 0.0, 0.0, 0.0, 0.0, 0.0, -3.82, -11.87, -12.07, -12.07, -12.52, -12.96, -12.14, -10.84, -9.2, -7.87, -6.64, -5.63, -6.64, -9.2, -9.33, -10.0, -9.67, -8.53, -8.23, -8.61, -9.55, -5.99, 6.0, 12.03, 10.77, 10.43, 10.1, 11.06, 10.47, 9.91, 8.91, 8.2, 7.54, 6.6, 6.6, 6.18, 6.18, 6.4, 6.2, 5.99, 5.63, 5.63, 5.99, 7.2, 7.71, 8.05, 6.47, 6.02, 4.6, 5.62, 4.34, 3.69, 2.72, 1.13, 6.4, 13.41, 12.3, 12.52, 0.0, -2.82, -3.82, -3.53, 2.19, 10.38, 12.35, 13.15, 13.59, 13.7, 12.65, 12.27, 11.6, 11.6, -14.3, -14.3, -14.3, -14.08, -13.73, -13.15, -12.22, -11.63, -11.33, -10.72, -10.39, -10.73, -9.17, -7.51, -5.8, -3.82, 0.0, 0.0, 0.0, -11.62, -13.41, -11.6, -4.1, 0.0, 0.0, 0.0, -3.68, -11.45, -12.07, -12.14, -14.03, -13.86, -12.52, -9.54, -7.2, -6.32, -5.69, -4.6, -4.83, -7.27, -10.73, -11.99, -10.55, -9.62, -10.75, -10.32, -6.99, 3.36, 12.74, 12.0, 10.43, 10.75, 10.1, 10.17, 9.62, 9.2, 8.68, 7.54, 6.8, 6.6, 5.81, 6.18, 6.4, 5.33, 5.33, 4.97, 5.14, 5.14, 6.37, 7.2, 7.92, 7.71, 6.19, 5.46, 5.46, 5.3, 5.3, 3.69, 2.72, 1.13, 6.4, 13.41, 12.3, 12.52, 0.0, -2.82, -3.82, -3.53, 2.19, 10.38, 12.35, 13.15, 13.59, 13.7, 12.65, 12.27, 11.6, 11.6, -14.59, -14.3, -14.3, -14.3, -14.08, -13.73, -12.8, -11.96, -11.03, -10.99, -10.65, -9.08, -9.17, -7.54, -5.2, -3.68, 0.0, -5.2, -10.8, -12.96, -11.62, -12.52, -11.87, -11.16, -7.69, -2.6, -2.6, -7.59, -11.18, -10.79, -13.7, -14.9, -14.3, -11.18, -7.6, -6.32, -4.37, -4.96, -6.3, -7.44, -9.08, -10.04, -10.28, -10.9, -10.12, -8.2, 2.54, 11.16, 11.2, 11.54, 10.75, 10.75, 10.75, 10.1, 9.22, 8.16, 7.66, 6.37, 5.81, 4.96, 4.96, 5.5, 5.33, 5.33, 5.33, 5.5, 5.3, 7.0, 7.0, 8.11, 8.11, 6.74, 5.26, 5.11, 4.34, 4.34, 3.18, 3.69, 2.23, 1.13, 6.4, 13.41, 12.96, 10.8, 0.0, -2.28, -4.4, 0.0, 10.84, 12.52, 14.3, 14.47, 14.47, 14.31, 14.03, 13.23, 12.46, 11.5, -14.59, -14.59, -14.3, -14.3, -13.73, -13.73, -13.15, -12.56, -11.63, -10.99, -10.65, -9.94, -9.88, -8.22, -5.2, -2.82, -2.82, -3.82, -10.4, -12.07, -11.18, -11.18, -11.18, -11.18, -11.71, -9.17, -5.7, -6.95, -9.83, -10.38, -11.09, -13.32, -14.84, -15.65, -12.14, -7.59, -7.27, -6.7, -7.27, -8.69, -9.3, -9.59, -9.17, -7.51, -3.44, 2.13, 8.87, 9.31, 10.43, 10.43, 10.43, 10.01, 9.71, 9.71, 9.06, 7.59, 6.6, 5.3, 4.96, 5.14, 5.3, 5.5, 5.5, 5.33, 5.33, 5.67, 7.0, 8.2, 9.92, 9.67, 8.67, 7.0, 5.81, 4.4, 2.81, 1.06, 0.0, 0.0, 0.8, 0.0, 2.63, 13.41, 12.3, 8.22, 0.0, -2.28, -2.37, 10.4, 10.84, 13.86, 15.2, 14.75, 13.86, 13.41, 12.96, 13.41, 12.88, 11.72, -14.59, -14.59, -14.59, -14.3, -13.73, -13.73, -13.73, -13.15, -11.63, -10.99, -10.3, -10.23, -9.53, -9.08, -6.71, -6.97, -5.2, -3.68, -8.22, -12.07, -12.96, -12.52, -11.62, -11.62, -10.73, -12.07, -11.87, -12.07, -11.18, -10.08, -10.18, -10.46, -11.03, -12.27, -14.16, -13.15, -13.2, -11.28, -9.0, -9.42, -9.17, -5.8, 0.0, 1.96, 3.36, 6.2, 8.31, 9.31, 10.43, 10.75, 9.6, 9.31, 9.31, 9.6, 8.18, 6.6, 6.1, 5.67, 5.3, 5.14, 4.52, 5.73, 5.33, 5.67, 5.67, 7.4, 8.13, 10.33, 12.33, 12.27, 10.91, 8.77, 8.2, 6.99, 4.03, 0.92, -2.28, -3.0, -0.86, 0.0, 3.14, 11.6, 5.4, 0.0, 0.0, -2.28, 0.0, 10.4, 11.16, 14.9, 14.11, 12.96, 12.52, 12.96, 12.86, 13.41, 12.66, 11.72, -14.23, -14.59, -14.59, -14.23, -13.73, -13.73, -13.73, -13.15, -12.22, -11.58, -10.3, -9.5, -10.04, -8.22, -6.71, -6.71, -7.9, -8.22, -8.94, -11.03, -11.62, -11.98, -13.01, -12.72, -12.52, -12.07, -12.07, -12.07, -12.96, -12.07, -9.83, -10.08, -10.2, -10.28, -11.93, -13.5, -12.6, -10.25, -8.47, -8.94, -6.94, 0.0, 2.28, 1.58, 1.58, 6.6, 9.6, 9.31, 10.12, 9.31, 8.05, 8.87, 8.05, 8.31, 7.16, 5.48, 5.04, 4.66, 5.3, 4.81, 4.38, 4.24, 4.66, 5.85, 6.66, 8.74, 10.7, 10.99, 10.76, 11.45, 10.31, 9.0, 8.99, 7.99, 5.8, 3.05, 0.0, -4.1, -1.61, 0.0, 0.0, -5.2, -6.2, -6.45, -6.97, -8.22, -5.4, -0.0, 8.18, 11.44, 11.6, 13.31, 13.41, 12.86, 12.9, 13.41, 12.66, 11.2, -14.23, -14.23, -14.23, -14.23, -14.02, -13.73, -13.73, -13.38, -13.09, -11.87, -10.23, -9.48, -9.3, -6.98, -6.21, -6.44, -7.9, -8.22, -8.93, -9.7, -10.84, -11.62, -10.96, -11.84, -12.52, -11.62, -11.53, -11.98, -12.04, -10.32, -10.6, -9.54, -9.83, -9.03, -10.78, -12.51, -11.76, -11.16, -8.22, -4.6, 0.0, 0.0, 0.0, 0.0, 3.07, 8.83, 11.38, 10.01, 9.13, 7.69, 7.93, 8.87, 8.31, 7.82, 5.81, 5.15, 4.89, 3.76, 3.47, 4.08, 3.02, 3.25, 4.0, 5.98, 9.92, 10.99, 10.61, 9.23, 7.49, 6.42, 6.5, 5.4, 4.38, 4.01, 2.79, 2.79, 1.89, 0.0, 0.0, 0.0, 0.0, -10.4, -11.21, -11.21, -9.66, -12.52, -4.38, -0.0, 8.58, 11.5, 12.33, 13.01, 13.33, 13.36, 13.41, 12.88, 11.72, 10.48, -14.51, -14.23, -14.23, -14.23, -14.02, -13.73, -13.38, -13.44, -13.09, -12.09, -10.51, -9.74, -9.86, -8.22, -6.7, -5.95, -6.45, -8.53, -8.22, -9.08, -6.71, -4.15, -9.66, -11.98, -11.18, -10.28, -10.18, -10.05, -10.09, -10.0, -10.6, -11.46, -11.18, -10.32, -10.5, -10.6, -9.97, -10.38, -8.85, -8.22, 0.0, 0.0, 0.0, 0.0, 10.43, 13.39, 11.06, 9.66, 8.85, 7.93, 6.94, 7.44, 7.34, 6.2, 5.63, 3.98, 3.98, 2.48, 2.2, 1.97, 1.98, 2.4, 5.34, 10.02, 12.22, 12.01, 8.56, 6.02, 2.64, 0.0, 0.0, 0.0, 0.0, -1.04, -0.95, 0.0, 1.77, 3.02, 3.73, 1.3, 0.0, -10.73, -11.95, -11.5, -9.77, -4.24, 0.0, 13.41, 12.96, 12.79, 12.58, 12.66, 13.15, 13.81, 13.41, 12.22, 11.3, 10.09, -14.51, -14.51, -14.23, -14.23, -14.02, -14.02, -13.66, -13.09, -12.73, -12.37, -11.07, -10.55, -11.85, -10.99, -10.04, -9.16, -9.16, -9.16, -9.08, -9.3, -5.0, 0.0, -1.44, -5.4, -10.35, -12.14, -9.39, -8.8, -8.55, -9.86, -10.22, -10.73, -11.18, -11.11, -11.18, -10.28, -10.73, -10.73, -11.62, -11.18, 0.0, 0.0, 0.0, 0.0, 10.12, 4.38, 7.2, 7.6, 9.35, 8.06, 7.32, 7.54, 7.11, 6.2, 4.38, 3.01, 1.38, 1.17, 0.0, 0.0, 0.0, 2.15, 9.12, 13.02, 12.22, 9.42, 6.26, 3.62, -1.34, -3.88, -4.23, -3.72, -4.01, -3.28, -2.89, -1.1, 0.0, 1.08, 0.96, 0.89, 0.95, -8.38, -13.57, -12.74, -6.94, 0.0, 2.13, 2.54, 7.51, 12.96, 12.88, 12.75, 12.51, 13.34, 13.41, 12.22, 10.68, 11.09, -14.13, -14.13, -14.13, -14.23, -14.02, -13.66, -13.66, -13.09, -13.01, -12.27, -11.62, -11.88, -11.22, -11.6, -11.92, -11.36, -11.41, -11.92, -11.56, -10.91, -10.47, -10.46, -9.46, -8.93, -8.73, -10.38, -9.54, -9.83, -9.96, -9.97, -10.73, -11.18, -9.83, -8.93, -8.22, -9.67, -10.73, -8.94, -11.62, 0.0, 0.0, 5.6, 0.0, 0.0, 0.0, 0.0, 0.0, 0.0, 5.81, 7.76, 8.57, 8.85, 7.58, 6.2, 3.36, 1.77, 0.0, 0.0, 0.0, 0.0, 0.0, 9.17, 14.95, 13.97, 11.38, 8.47, 6.11, 3.9, -1.53, -7.58, -8.85, -8.05, -6.66, -5.09, -3.79, -3.36, -3.85, -3.34, -1.98, -0.95, 1.01, 3.72, -9.92, -8.05, -1.96, 1.66, 3.36, 3.81, 8.05, 12.79, 12.83, 12.14, 12.14, 12.86, 12.96, 12.04, 11.2, 11.2, -14.13, -14.13, -14.13, -13.66, -13.66, -13.66, -13.66, -13.09, -12.93, -12.27, -12.16, -12.27, -12.27, -12.16, -11.99, -12.29, -13.52, -13.32, -13.73, -14.34, -15.34, -15.45, -14.4, -12.09, -12.42, -10.58, -10.28, -9.83, -9.83, -9.83, -10.28, -8.4, -0.0, -0.0, -3.11, -8.22, -11.62, -11.62, -8.22, 0.0, 4.1, 3.96, 5.2, 0.0, 0.0, 0.0, 0.0, 3.96, 7.19, 9.48, 11.33, 12.22, 11.38, 10.3, 8.93, 7.4, 7.4, 2.28, 0.0, 0.0, 14.51, 15.99, 14.79, 14.07, 13.8, 14.65, 15.17, 12.64, 3.69, -3.04, -8.31, -7.32, -7.2, -5.09, -4.37, -3.53, -4.32, -4.4, -4.52, 0.0, 4.18, 8.68, 9.23, 2.4, 3.9, 4.66, 5.64, 6.8, 8.94, 12.45, 12.52, 12.35, 11.87, 12.39, 12.07, 12.3, 12.3, 12.3, -14.13, -13.94, -13.94, -13.94, -13.66, -13.66, -13.66, -13.01, -12.93, -12.27, -12.27, -12.82, -12.93, -11.8, -10.59, -10.51, -9.76, -10.8, -11.95, -12.87, -13.42, -13.91, -13.88, -15.27, -13.23, -12.52, -11.45, -3.8, -0.0, -0.0, -5.0, -0.0, -0.0, 3.25, 3.25, -0.0, -7.59, 0.0, 0.0, 5.4, 6.94, 6.7, 8.22, 3.68, 0.0, 0.0, 5.4, 8.85, 12.3, 13.15, 13.28, 14.79, 15.62, 16.74, 15.99, 14.77, 16.37, 11.73, 5.4, 13.86, 17.77, 17.39, 16.54, 15.53, 15.74, 18.89, 21.68, 22.12, 18.84, 15.19, 10.43, 4.38, 0.0, -2.98, -3.56, -2.33, -3.19, 0.0, 0.0, 4.95, 9.66, 10.3, 9.42, 8.68, 9.66, 9.2, 7.8, 6.29, 8.57, 10.82, 11.2, 11.62, 11.46, 11.46, 12.52, 12.71, 12.71, 12.79, -13.76, -13.58, -13.94, -13.94, -13.66, -13.66, -13.3, -13.01, -12.56, -12.27, -12.27, -12.56, -12.93, -12.09, -11.28, -9.77, -9.53, -10.03, -10.47, -10.73, -9.62, -7.43, -6.8, -3.88, -1.3, -1.53, 0.0, 0.0, 8.53, 1.93, -0.0, -0.0, -0.0, 3.25, 4.6, 7.27, 7.27, 11.18, 11.18, 10.0, 8.22, 6.45, 6.2, 0.0, 0.0, 0.0, 11.62, 12.07, 11.6, 11.99, 12.52, 11.99, 12.79, 13.59, 15.19, 12.96, 14.22, 13.68, 0.0, 11.45, 16.03, 16.35, 16.99, 15.93, 18.33, 20.12, 22.31, 24.78, 23.85, 23.11, 18.86, 17.1, 6.4, 0.0, -1.62, -1.91, 0.0, 11.38, 11.38, 10.33, 10.05, 8.51, 4.62, 5.23, 9.42, 10.08, 8.24, 8.0, 9.66, 10.86, 10.65, 10.79, 11.18, 11.62, 12.52, 12.71, 12.96, 13.23, -13.85, -13.58, -13.58, -13.94, -13.94, -13.66, -13.38, -13.01, -12.56, -12.65, -12.65, -12.37, -12.37, -12.45, -11.58, -10.36, -9.48, -9.02, -8.91, -8.66, -7.5, -6.05, -4.16, -3.2, -1.58, -1.67, -1.72, -2.48, -4.24, -0.0, -0.0, -0.0, -0.0, -0.0, 6.95, 8.8, 9.83, 10.28, 9.2, 7.59, 0.0, 0.0, 0.0, 0.0, 0.0, 0.0, 9.39, 11.18, 0.0, 0.0, 0.0, -12.07, -12.07, 0.0, 0.0, -12.52, 0.0, 0.0, -5.2, 13.86, 13.27, 15.65, 16.44, 16.99, 16.54, 16.48, 17.2, 18.78, 20.63, 18.24, 19.71, 20.75, 18.33, 0.0, 0.0, 0.0, 11.7, 12.33, 10.87, 9.0, 7.6, 4.01, 1.56, 0.0, 4.95, 5.65, 6.42, 8.2, 10.7, 12.45, 10.77, 9.3, 10.38, 12.27, 12.27, 12.58, 12.96, 12.79, -13.85, -13.58, -13.58, -13.58, -13.58, -13.58, -13.38, -12.65, -12.56, -12.37, -12.37, -12.37, -12.37, -12.09, -11.87, -10.36, -9.78, -9.8, -9.36, -8.87, -7.63, -7.13, -6.4, -5.55, -4.73, -3.36, -2.85, -2.55, -3.85, -7.44, 0.0, 0.0, 11.18, 10.28, 10.28, 10.28, 10.73, 9.83, 10.0, 4.4, 0.0, 0.0, -4.4, -4.4, 0.0, 9.83, 9.83, 10.28, 10.73, 0.0, -11.62, -10.0, -7.59, 0.0, 0.0, 0.0, -11.62, -11.09, -4.45, 14.51, 12.86, 12.71, 13.86, 14.3, 14.75, 15.2, 15.69, 16.99, 14.39, 16.74, 20.56, 21.04, 17.11, 12.52, 11.99, 11.7, 12.33, 11.64, 9.0, 8.25, 7.08, 3.69, 1.73, 0.0, -5.8, 0.0, 1.51, 7.2, 11.38, 13.06, 12.7, 10.09, 10.4, 11.87, 12.72, 12.71, 12.79, 12.79, -13.85, -13.85, -13.58, -13.58, -13.58, -13.58, -13.01, -12.65, -12.73, -12.37, -12.37, -12.37, -12.37, -11.52, -10.94, -10.65, -9.78, -9.48, -9.43, -9.02, -8.56, -7.44, -7.03, -6.32, -5.48, -4.24, -2.72, -2.16, -2.47, -3.25, -3.25, -2.37, 0.0, 0.0, 10.28, 8.94, 10.28, 9.97, 7.59, 0.0, 0.0, 0.0, 0.0, 0.0, 4.4, 9.39, 9.83, 10.28, 10.28, 10.28, 0.0, 0.0, 0.0, 0.0, 0.0, 0.0, -7.27, -6.45, 0.0, 9.77, 11.45, 11.62, 11.03, 8.53, 5.4, 9.17, 0.0, 0.0, 15.27, 19.67, 12.87, 8.4, 13.28, 18.78, 12.65, 14.31, 14.47, 13.28, 11.45, 11.25, 11.25, 11.0, 6.69, 3.58, -5.4, -11.18, -3.25, 5.8, 9.96, 11.09, 11.06, 10.55, 11.92, 12.56, 11.2, 10.8, 11.87, 11.87, -13.85, -13.85, -13.58, -13.58, -13.58, -13.58, -13.01, -12.65, -12.73, -12.37, -12.37, -12.0, -11.8, -11.8, -10.88, -10.3, -9.78, -9.46, -9.15, -8.38, -7.44, -7.11, -6.27, -5.63, -3.64, -2.81, -2.09, -2.09, -1.47, -2.35, -2.63, -3.14, -2.42, 0.0, 6.32, 8.91, 9.33, 7.59, 3.25, 0.0, 0.0, 0.0, 0.0, 0.0, 4.4, 9.83, 10.28, 10.28, 9.2, 7.27, 4.6, 4.8, 3.53, 5.95, 2.6, 2.49, 0.0, 0.0, 3.82, 9.17, 9.77, 8.94, 8.93, 5.95, 2.6, 0.0, 0.0, 0.0, 13.86, -0.0, -5.31, -4.45, -0.0, 18.79, 12.64, 16.3, 16.22, 15.11, 14.5, 13.96, 13.96, 13.12, 11.06, 8.43, 3.47, 0.0, -8.53, 11.12, 10.47, 9.02, 9.8, 10.73, 11.5, 11.92, 11.26, 10.04, 11.2, 11.2, -13.85, -13.85, -13.85, -13.58, -13.58, -13.58, -13.01, -12.65, -12.45, -12.37, -12.37, -11.8, -11.44, -10.88, -10.3, -9.72, -9.77, -9.48, -8.54, -7.78, -6.87, -6.27, -5.71, -4.46, -2.09, -1.36, -2.15, -2.15, -2.25, -2.37, -3.2, -3.46, -3.04, 0.0, 3.39, 4.6, 4.4, 0.0, 0.0, 0.0, -2.39, -3.11, 0.0, 0.0, 4.6, 9.2, 10.73, 9.2, 7.27, 7.27, 5.7, 5.7, 5.7, 4.6, 4.6, 4.6, 3.82, 5.52, 6.98, 6.98, 7.54, 6.97, 4.8, 2.6, 0.0, 0.0, 0.0, -4.6, -11.45, -15.65, -19.08, -16.37, 0.0, 4.21, 10.46, 15.77, 15.16, 13.28, 12.59, 12.56, 11.48, 9.48, 8.0, 4.71, 5.6, 5.6, 9.17, 10.37, 8.05, 8.58, 10.12, 10.37, 10.09, 10.8, 10.79, 10.79, 10.87, 10.87, -13.48, -13.85, -13.85, -13.58, -13.21, -13.21, -13.01, -13.01, -12.45, -12.09, -12.16, -11.8, -11.23, -11.16, -10.59, -10.92, -10.01, -10.06, -8.54, -6.8, -6.25, -6.87, -7.03, -6.0, -4.81, -3.98, -3.47, -3.81, -3.68, -3.91, -4.61, -4.1, -2.24, 0.0, 1.84, 2.6, 0.0, -3.98, -2.71, -3.39, -2.39, -2.49, -3.53, 0.0, 3.68, 7.59, 7.59, 7.27, 7.27, 7.27, 5.7, 5.7, 5.7, 7.27, 8.23, 7.27, 7.27, 7.9, 7.54, 5.98, 5.98, 5.2, 5.0, 0.0, 0.0, 4.2, 9.39, 0.0, -3.98, -5.31, -2.94, 0.0, 4.56, 5.96, 5.37, 4.95, 0.0, 0.0, 3.04, 4.59, 1.88, 1.73, 0.0, 0.0, 1.9, 4.24, 4.24, 5.8, 6.0, 6.0, 11.44, 10.91, 9.82, 9.08, 11.88, 12.79, 10.82, 10.82, -13.48, -13.48, -13.48, -13.48, -13.48, -13.3, -13.3, -13.01, -12.65, -12.09, -11.52, -11.44, -11.16, -10.94, -10.94, -10.01, -9.66, -9.59, -9.69, -8.37, -7.74, -8.28, -8.9, -8.87, -8.21, -7.78, -6.53, -6.57, -6.2, -5.2, -4.65, -3.29, 0.0, 0.0, 2.82, 3.39, 0.0, 0.0, -1.76, -1.28, -1.18, -1.18, -1.23, 0.0, 1.39, 2.82, 5.7, 4.6, 4.6, 4.4, 5.46, 5.7, 7.59, 10.0, 8.8, 7.87, 7.9, 7.59, 6.7, 4.32, 4.15, 2.6, 2.6, 0.0, 4.6, 10.28, 9.97, 11.18, 5.4, 3.25, 4.01, 5.55, 6.63, 4.52, 0.95, -3.05, -9.23, -11.38, -5.65, -1.54, 0.0, 0.0, 0.0, 0.0, 0.0, 2.2, 6.0, 7.19, 4.81, 5.6, 11.16, 10.47, 9.17, 9.17, 11.88, 13.03, 11.52, 11.52, -13.48, -13.48, -13.48, -13.48, -13.3, -13.3, -12.93, -12.93, -12.65, -12.45, -11.52, -11.23, -11.16, -10.94, -10.94, -10.35, -10.06, -10.01, -9.66, -10.24, -10.12, -10.1, -10.39, -10.06, -9.38, -8.69, -7.34, -6.67, -5.68, -4.92, -4.47, -2.82, 0.0, 0.0, 2.28, 2.19, 2.71, 0.0, 0.0, 0.0, 0.0, 0.0, 0.0, 0.0, 0.0, 2.93, 3.11, 3.25, 3.25, 4.6, 4.4, 7.27, 8.93, 10.84, 9.96, 8.23, 9.3, 8.49, 7.26, 5.0, 3.53, 3.53, 0.0, 0.0, 10.28, 10.41, 10.41, 12.07, 11.6, 11.28, 11.06, 9.91, 7.35, 1.25, -2.92, -7.08, -14.73, -15.33, -12.8, -9.33, -4.12, 0.0, 1.34, 2.91, 1.96, 4.98, 8.38, 10.91, 10.73, 8.53, 8.85, 8.05, 7.36, 8.05, 11.09, 11.8, 10.43, 10.43, -13.48, -13.48, -13.3, -13.3, -12.93, -12.93, -12.93, -12.93, -12.65, -12.45, -11.52, -11.23, -11.16, -10.94, -10.94, -10.7, -10.41, -10.65, -10.94, -11.03, -10.43, -9.8, -9.8, -9.17, -8.78, -7.93, -6.95, -5.52, -4.24, -3.82, -3.18, -1.44, 0.0, 1.64, 1.64, 1.39, 0.0, 0.0, 0.0, 0.0, 0.0, 0.0, 0.0, 0.0, 0.0, 1.52, 2.6, 3.11, 4.6, 4.6, 7.27, 10.18, 10.41, 10.84, 10.41, 10.38, 10.68, 10.94, 8.22, 6.44, 4.6, 0.0, 7.9, 11.18, 11.18, 11.18, 11.4, 11.71, 12.96, 14.75, 13.99, 13.09, 12.72, 3.41, -6.95, -9.84, -14.49, -16.79, -15.99, -13.97, -10.3, -3.24, 0.0, 4.81, 5.02, 5.28, 9.48, 11.9, 10.43, 8.53, 6.21, 6.0, 6.4, 8.58, 10.12, 10.12, 8.85, 8.85, -12.93, -12.93, -12.93, -12.93, -12.93, -12.93, -12.93, -12.93, -12.73, -12.09, -11.52, -11.23, -11.23, -10.94, -10.94, -10.7, -10.7, -10.7, -10.73, -11.05, -9.8, -8.53, -7.89, -8.17, -8.15, -7.4, -6.94, -5.93, -4.7, -3.53, -2.53, -0.97, 0.0, 0.0, 0.0, 0.0, 0.0, 0.0, 0.0, 0.0, 0.0, 0.0, 0.0, 0.0, 0.0, 0.0, 0.0, 0.0, 0.0, 4.6, 7.27, 10.18, 10.18, 10.84, 10.41, 10.41, 10.96, 11.92, 10.79, 7.21, 6.64, 7.27, 11.62, 11.03, 10.96, 11.18, 11.62, 10.84, 11.03, 11.2, 13.86, 12.64, 23.59, -0.0, -8.05, -9.11, -11.55, -13.92, -15.37, -15.29, -12.39, -11.06, -4.3, 0.0, 1.83, 3.81, 8.66, 8.94, 6.8, 6.8, 6.43, 6.0, 6.4, 6.4, 10.12, 8.58, 4.52, 4.52, -13.2, -13.2, -12.93, -12.93, -12.93, -12.93, -12.37, -12.37, -12.37, -12.37, -11.8, -11.23, -11.23, -10.99, -10.7, -10.7, -11.04, -11.04, -10.73, -10.12, -9.16, -8.23, -7.22, -7.51, -7.48, -7.44, -6.72, -6.2, -5.2, -4.1, -2.87, -2.37, -0.83, -0.8, 0.0, 0.0, 0.0, 0.0, 0.0, 0.0, 0.0, 0.0, 0.0, 0.0, 0.0, 0.0, 0.0, 0.0, 4.8, 5.0, 8.22, 7.9, 10.18, 10.18, 9.97, 10.28, 10.28, 12.07, 11.6, 9.08, 6.32, 6.64, 11.18, 11.03, 10.96, 12.07, 12.07, 12.52, 11.18, 10.0, -11.18, -17.11, -11.6, 19.91, 11.7, 0.0, -9.48, -12.04, -13.19, -14.11, -12.74, -12.79, -10.43, -7.1, -4.66, 0.0, 2.43, 4.66, 7.82, 11.38, 7.34, 7.44, 8.31, 6.2, 6.4, 5.31, 2.28, 2.28, -13.2, -13.2, -12.93, -12.93, -12.93, -12.56, -12.37, -12.0, -12.0, -11.8, -11.8, -11.8, -11.23, -10.99, -11.29, -11.04, -11.04, -10.39, -10.11, -9.8, -9.17, -8.81, -8.15, -7.48, -6.76, -6.76, -6.72, -6.25, -5.74, -4.64, -4.1, -2.97, -2.31, -1.54, -1.48, -0.76, -0.8, -0.8, -0.86, -0.97, -1.05, -1.16, 0.0, -1.58, -1.84, -1.76, -1.91, 0.0, 1.62, 3.11, 5.52, 6.94, 7.59, 9.6, 9.75, 10.28, 10.28, 9.83, 11.62, 6.94, 5.0, 4.2, 9.83, 10.18, 11.4, 12.07, 12.07, 12.07, 12.07, 0.0, -9.48, -9.09, -3.1, 2.51, 8.76, 9.2, 9.01, 4.95, -8.58, -12.6, -13.05, -12.39, -11.5, -10.73, -10.43, -5.48, 0.0, 5.48, 12.16, 14.38, 14.4, 10.43, 8.58, 7.59, 4.98, 5.15, 2.72, 2.72, -12.82, -12.82, -12.82, -12.56, -12.37, -12.37, -12.37, -12.27, -11.72, -11.72, -11.44, -11.44, -11.23, -10.99, -10.99, -10.39, -10.39, -10.11, -10.11, -9.8, -9.17, -8.81, -8.81, -7.85, -7.44, -6.76, -6.3, -6.3, -5.8, -5.27, -4.1, -3.66, -3.04, -2.93, -2.28, -1.48, -1.42, -1.52, -1.58, -0.86, -0.93, -2.08, -1.11, -2.42, -2.6, -1.52, 0.0, 0.0, 1.39, 1.39, 1.84, 4.15, 5.6, 8.53, 10.0, 10.18, 9.2, 9.83, 10.28, 0.0, 0.0, 2.37, 4.2, 9.83, 11.18, 12.07, 12.52, 12.52, 12.96, 12.52, -5.4, -6.4, -1.54, 1.61, 8.62, 14.63, 13.14, 8.48, 0.0, -11.18, -13.07, -12.74, -13.59, -11.53, -10.99, -5.81, 0.0, 9.22, 13.19, 13.59, 13.26, 11.7, 8.72, 7.6, 6.2, 5.31, 5.15, 5.15, -12.82, -12.82, -12.65, -12.65, -12.65, -12.27, -12.27, -12.27, -11.72, -11.72, -11.72, -11.23, -11.23, -10.94, -10.99, -10.39, -10.39, -10.11, -10.11, -9.48, -9.48, -8.81, -8.53, -7.85, -7.44, -6.76, -6.3, -5.8, -5.27, -4.7, -4.94, -4.39, -3.73, -3.11, -3.11, -2.28, -2.28, -2.19, -1.52, -1.45, -1.7, -2.82, -1.91, -2.1, -2.02, -1.23, 0.0, 0.0, 0.0, 0.0, 0.0, 2.19, 2.02, 3.25, 7.9, 9.6, 9.6, 10.28, 8.4, -0.0, 0.0, 1.84, 4.15, 7.59, 12.14, 11.28, 12.07, 12.96, 12.96, 0.0, -4.1, -6.9, -5.18, 0.0, 8.32, 16.36, 13.2, 7.75, 0.0, -9.83, -11.57, -12.39, -12.99, -11.8, -11.75, -9.22, 0.0, 13.42, 13.59, 11.52, 9.49, 6.52, 7.8, 6.14, 6.17, 5.63, 6.4, 6.4, -12.65, -12.65, -12.65, -12.27, -12.27, -12.27, -12.09, -11.72, -11.72, -11.16, -11.52, -11.52, -11.23, -10.94, -10.69, -10.65, -10.39, -9.78, -9.78, -9.17, -9.17, -8.83, -8.53, -8.15, -7.85, -7.44, -6.76, -6.3, -5.6, -5.33, -4.77, -4.24, -3.6, -3.6, -3.11, -2.99, -2.28, -2.19, -2.19, -2.25, -2.34, -2.61, -1.84, -1.84, -0.89, -0.97, 0.0, 0.0, 0.0, 0.0, 0.0, 0.0, 0.0, 0.0, 0.0, 8.22, 7.9, 10.73, 9.2, 7.27, 0.0, 0.0, 1.84, 7.24, 9.3, 11.2, 13.41, 12.52, -8.53, -9.17, -4.52, -2.81, -5.28, -7.13, -2.98, 0.0, 0.0, 0.0, -6.2, -10.28, -11.18, -11.36, -12.63, -10.99, -10.41, -9.8, 6.6, 15.18, 11.06, 6.6, 4.66, 2.57, 4.75, 5.37, 5.65, 6.35, 7.54, 7.54, -12.27, -12.27, -12.27, -12.27, -12.27, -12.09, -11.72, -11.72, -11.72, -11.35, -11.16, -11.52, -11.23, -11.23, -10.69, -10.36, -10.06, -9.78, -9.48, -9.17, -9.17, -8.54, -8.24, -8.53, -8.15, -7.48, -7.04, -6.57, -5.6, -5.08, -4.6, -4.02, -3.6, -3.6, -2.82, -2.99, -2.99, -2.19, -2.19, -2.25, -2.34, -2.51, -2.94, -1.71, 0.0, 0.0, 0.0, -1.76, -2.02, -1.14, -1.58, -1.76, -2.02, -2.49, -4.8, 0.0, 12.07, 11.62, 10.73, 11.18, 0.0, 0.0, 0.0, 6.94, 8.53, 10.79, 12.39, 11.87, -11.62, -11.62, -6.2, -2.43, -1.53, -7.79, -11.72, -13.62, -13.14, -8.6, -3.68, -12.01, -12.07, -10.28, -12.08, -10.35, -9.17, -3.25, 9.48, 10.43, 2.98, 2.5, 2.43, 5.64, 4.3, 5.5, 5.37, 5.81, 6.72, 6.72, -12.27, -12.27, -12.27, -12.27, -12.09, -11.72, -11.72, -11.72, -11.35, -11.16, -11.16, -11.16, -11.52, -11.23, -10.99, -10.36, -9.77, -9.77, -9.48, -8.87, -8.87, -8.54, -8.54, -8.17, -8.17, -7.48, -7.48, -7.04, -6.35, -5.86, -5.33, -4.6, -4.02, -3.87, -3.47, -3.47, -3.47, -2.88, -2.88, -2.76, -2.95, -3.16, -2.71, -3.08, -2.42, 0.0, -1.39, -2.95, -3.61, -4.4, -5.0, -4.6, -3.82, -6.17, -4.8, 0.0, 8.8, 10.0, 11.62, 0.0, 0.0, 0.0, 3.82, 3.68, 6.7, 11.2, 13.01, 13.57, 7.9, -9.83, -10.18, -6.0, 0.0, -1.41, -9.17, -12.99, -13.16, -10.13, -5.04, 0.0, -3.45, -9.62, -9.46, -8.15, -2.52, 1.77, 5.46, 2.02, 0.0, 0.0, 2.89, 3.07, 3.79, 4.95, 3.9, 4.23, 5.01, 5.01, -12.27, -12.27, -12.27, -12.09, -11.72, -11.72, -11.72, -11.72, -11.35, -11.16, -11.16, -11.16, -11.16, -10.94, -10.65, -10.65, -10.09, -9.77, -9.48, -8.87, -8.87, -8.54, -8.54, -8.17, -8.17, -7.78, -7.78, -7.09, -6.14, -5.86, -5.86, -5.33, -4.6, -4.6, -3.87, -3.92, -3.92, -3.33, -3.39, -3.39, -2.95, -3.16, -3.39, -3.67, -4.36, -5.4, -4.75, -3.39, -4.05, -5.0, -5.52, -6.42, -7.27, -8.58, -7.59, 0.0, 4.6, 8.22, 7.59, 0.0, 0.0, 0.0, 5.4, 0.0, 0.0, 0.0, 11.62, 12.96, 5.4, -3.11, -6.01, -7.9, 0.0, 3.75, -1.31, -7.56, -8.94, -7.92, -6.72, -3.23, -1.46, -1.37, -2.13, 0.0, 3.12, 5.31, 4.76, 3.93, 1.3, 0.0, 0.0, 0.0, 0.0, 0.0, 2.57, 2.65, 3.04, 3.04, -12.27, -12.27, -11.72, -11.72, -11.72, -11.72, -11.72, -11.16, -11.16, -11.16, -11.16, -10.8, -11.16, -10.59, -10.59, -10.3, -9.77, -9.77, -9.48, -9.48, -9.17, -8.87, -8.54, -8.54, -8.17, -7.78, -7.51, -7.14, -6.96, -5.98, -6.14, -5.86, -5.33, -5.14, -5.14, -4.43, -4.48, -3.92, -3.98, -3.98, -3.46, -3.85, -4.13, -3.67, -4.44, -5.35, -4.62, -3.98, -4.23, -5.0, -5.52, -6.42, -6.7, -6.44, -3.25, 0.0, 5.0, 5.0, 4.8, 4.6, 8.53, 8.22, 3.68, 0.0, 0.0, 0.0, 0.0, 0.0, -5.6, -2.93, -2.49, 10.28, 0.0, 3.09, 1.61, -2.3, -6.76, -6.71, -6.88, -5.65, -2.14, 0.0, 1.94, 4.27, 4.66, 4.37, 4.3, 3.42, 2.02, 1.06, 0.0, -2.02, -2.43, -1.68, 1.26, 1.3, 1.34, 1.34, -11.72, -11.72, -11.72, -11.72, -11.72, -11.72, -11.16, -11.16, -11.16, -11.16, -10.8, -10.8, -10.87, -10.87, -10.59, -10.3, -10.06, -10.06, -9.77, -9.77, -9.48, -8.87, -8.24, -8.24, -7.89, -7.82, -7.82, -7.4, -7.02, -6.96, -6.29, -6.21, -5.92, -5.92, -5.92, -5.2, -5.2, -4.48, -4.73, -3.98, -4.05, -4.5, -3.85, -4.13, -4.62, -4.13, -4.13, -3.51, -4.36, -4.8, -5.1, -5.7, -6.2, -5.52, -2.49, 0.0, 3.39, 3.39, 4.6, 7.59, 7.59, 7.59, 5.2, 4.8, 0.0, 0.0, 0.0, -7.27, -8.22, -3.14, 0.0, 7.9, 0.0, -5.09, -3.29, -1.25, -2.89, -8.22, 0.0, 0.0, 0.0, 1.98, 2.72, 3.59, 2.96, 2.83, 2.08, 1.97, 1.67, 1.03, 0.0, -2.91, -4.87, -5.02, -2.56, 0.0, 0.0, 0.0, -11.99, -11.99, -11.72, -11.72, -11.35, -11.16, -11.16, -11.16, -11.16, -11.16, -10.8, -10.8, -10.87, -10.87, -10.23, -10.01, -10.01, -10.06, -9.77, -9.77, -9.48, -9.17, -8.56, -8.24, -8.2, -8.2, -7.82, -7.82, -7.82, -6.7, -6.29, -6.29, -5.98, -6.21, -5.92, -5.7, -5.2, -5.2, -4.73, -4.54, -4.8, -4.05, -4.5, -4.8, -4.13, -3.95, -4.25, -3.51, -3.98, -4.36, -4.8, -5.0, -5.32, -4.05, -1.69, 0.0, 0.0, 0.0, 3.25, 7.59, 11.2, 10.0, 10.0, 7.9, 7.27, 7.59, 0.0, 0.0, -8.22, -5.6, 0.0, 5.6, 0.0, -7.38, -8.32, -2.58, 1.17, 4.5, 5.15, 3.0, 0.95, 0.0, 0.0, 0.0, 0.0, 0.0, 0.0, 0.0, 0.0, 0.0, 0.0, -1.25, -3.6, -4.98, -4.98, -2.24, 0.0, 0.0, -11.62, -11.62, -11.62, -11.35, -11.16, -11.16, -11.16, -11.16, -11.16, -10.8, -10.8, -11.07, -10.87, -10.51, -10.51, -10.01, -10.01, -9.72, -10.06, -9.77, -9.48, -9.17, -8.56, -8.24, -7.89, -8.2, -7.82, -7.82, -7.82, -7.09, -6.7, -5.98, -5.98, -5.98, -5.98, -5.98, -5.98, -5.47, -5.26, -5.26, -4.8, -4.6, -4.31, -4.8, -4.6, -3.95, -4.07, -4.25, -4.6, -4.8, -5.21, -5.43, -4.8, -4.05, -3.39, -2.02, 0.0, 0.0, 0.0, 8.55, 9.33, 10.4, 9.6, 10.0, 10.0, 7.9, 7.59, 0.0, 0.0, -5.4, 0.0, 0.0, 0.0, -3.52, -4.77, -1.19, 4.46, 6.64, 5.87, 2.65, 0.0, -2.52, -2.32, -2.25, -1.56, -1.34, -0.67, 0.0, 0.0, 0.0, -1.13, -1.55, -3.6, -4.65, -3.14, 0.0, 2.43, 2.43, -11.62, -11.62, -11.62, -11.16, -11.16, -11.16, -11.16, -11.16, -10.8, -10.8, -10.8, -10.87, -10.87, -10.51, -10.51, -10.51, -10.01, -10.01, -9.72, -9.46, -9.46, -9.17, -8.56, -8.24, -7.89, -8.2, -7.82, -7.82, -7.4, -7.4, -6.94, -6.7, -5.98, -5.75, -5.75, -5.75, -5.75, -5.75, -5.26, -5.54, -5.32, -4.8, -4.87, -4.4, -3.78, -3.78, -4.4, -4.92, -4.92, -5.52, -5.21, -5.21, -4.6, -4.23, -3.25, -1.93, -1.93, 0.0, 0.0, 7.27, 8.55, 7.44, 7.59, 9.2, 4.6, 5.0, 0.0, 0.0, 0.0, -7.9, 0.0, 0.0, 0.0, 1.3, 0.0, 0.0, 1.16, 4.51, 4.21, 1.6, 0.0, -2.65, -4.1, -4.36, -3.46, -2.54, -1.83, -1.04, -1.13, -1.17, -1.29, -1.61, -1.61, 0.0, 8.85, 12.04, 11.88, 11.88, -11.07, -11.07, -11.07, -11.07, -10.8, -10.8, -10.8, -10.8, -10.8, -10.59, -10.59, -10.87, -10.51, -10.51, -10.3, -10.3, -10.01, -10.01, -9.76, -9.13, -9.13, -8.85, -8.85, -8.24, -7.95, -7.61, -7.24, -7.54, -7.54, -7.14, -7.14, -6.7, -6.7, -6.45, -5.75, -5.75, -5.75, -6.04, -6.04, -5.54, -5.32, -5.32, -5.18, -5.0, -3.88, -3.78, -4.6, -4.6, -4.92, -5.52, -5.95, -5.21, -4.6, -5.32, -4.4, -3.65, -1.93, -2.28, 4.4, 6.95, 8.18, 7.81, 7.27, 6.95, 4.8, 0.0, 0.0, 0.0, 0.0, 0.0, -8.22, 0.0, 4.95, 5.94, 3.87, 0.0, -5.15, -4.67, -3.67, -3.02, -1.78, -0.98, -2.4, -5.4, -5.4, -3.73, -2.4, -2.81, -1.43, -1.43, 0.0, 0.0, 7.44, 13.41, 12.96, 12.46, 11.37, 12.56, -11.34, -11.34, -11.07, -11.07, -10.8, -10.8, -10.8, -10.59, -10.59, -10.59, -10.23, -10.23, -10.3, -10.3, -10.3, -10.3, -10.01, -9.66, -9.42, -9.42, -9.13, -8.85, -8.53, -8.53, -8.24, -7.61, -7.61, -7.24, -7.54, -7.14, -7.14, -7.14, -6.7, -6.45, -6.45, -5.75, -5.75, -6.04, -6.04, -5.8, -5.62, -5.62, -5.7, -5.2, -4.07, -3.78, -4.87, -5.18, -5.52, -5.52, -5.7, -4.99, -4.6, -5.1, -4.4, -2.97, -3.49, -2.28, 4.2, 6.95, 6.95, 6.64, 7.59, 4.2, 0.0, 0.0, 0.0, 0.0, 0.0, 0.0, 0.0, 0.0, 0.0, 5.51, 9.19, 7.21, -3.58, -10.17, -10.69, -8.25, -4.55, -1.89, -1.17, -3.2, -6.2, -3.68, -1.72, 0.0, 0.0, 0.0, 0.0, 6.9, 13.41, 13.41, 13.28, 11.26, 10.73, 11.37, -10.96, -10.96, -10.7, -11.07, -11.07, -10.59, -10.59, -10.59, -10.59, -10.23, -10.23, -10.01, -10.3, -10.3, -10.3, -10.3, -9.66, -9.66, -9.42, -9.42, -9.08, -8.82, -8.53, -8.53, -8.24, -8.24, -7.61, -7.61, -7.24, -7.24, -7.14, -7.14, -6.7, -6.7, -6.45, -6.45, -5.75, -6.04, -6.04, -6.11, -6.11, -5.7, -5.7, -6.14, -5.2, -4.12, -5.62, -5.95, -6.05, -5.9, -5.46, -4.78, -4.98, -4.66, -3.7, -4.2, -4.6, 0.0, 4.2, 4.2, 6.95, 6.64, 5.37, 4.4, 4.6, 0.0, 0.0, 0.0, 0.0, 0.0, 7.9, 0.0, 0.0, 0.0, 7.99, 15.86, 12.16, -4.42, -9.5, -8.87, -5.62, -3.02, -0.96, 0.0, 0.0, 0.0, 0.0, 1.83, 3.93, 3.01, 4.38, 10.82, 13.32, 13.32, 11.16, 10.3, 9.17, 10.73, -10.96, -10.96, -10.79, -10.51, -10.51, -10.23, -10.59, -10.23, -10.23, -10.01, -10.01, -10.01, -10.01, -10.3, -10.3, -9.94, -9.66, -9.42, -9.08, -9.08, -8.82, -8.82, -8.82, -8.53, -8.24, -8.24, -8.24, -7.9, -7.61, -7.24, -7.24, -6.87, -6.87, -6.45, -6.45, -6.45, -6.45, -6.04, -6.04, -6.11, -6.11, -5.7, -6.05, -6.51, -6.23, -6.2, -5.7, -6.42, -6.04, -6.04, -5.21, -4.98, -4.98, -4.44, -4.44, -4.0, -3.8, 0.0, 0.0, 4.2, 4.2, 6.64, 7.59, 6.95, 4.4, 4.6, 0.0, 0.0, 0.0, 10.0, 11.62, 8.22, -9.17, -12.39, 0.0, 11.95, 17.3, 12.19, 0.0, -7.78, -8.85, -5.18, -1.25, 0.0, 1.21, 1.53, 2.02, 1.83, 3.2, 3.1, 3.93, 10.12, 11.88, 10.82, 8.38, 6.67, 4.81, 4.81, -10.41, -10.41, -10.79, -10.51, -10.51, -10.51, -10.23, -10.23, -10.01, -10.01, -10.01, -9.66, -9.66, -9.66, -9.66, -9.66, -9.42, -9.42, -9.08, -9.08, -8.82, -8.82, -8.82, -8.53, -8.53, -8.24, -8.24, -7.9, -7.9, -7.24, -7.24, -6.97, -6.87, -6.87, -6.45, -6.45, -6.45, -6.29, -6.04, -6.04, -6.11, -5.95, -5.7, -6.17, -6.54, -6.11, -6.05, -6.04, -5.63, -5.63, -5.63, -5.36, -4.74, -5.2, -4.21, -4.71, -3.6, 0.0, 0.0, 0.0, 2.97, 4.0, 6.01, 4.4, 4.4, 4.4, 4.6, 0.0, 9.2, 11.18, 11.62, 7.9, -9.17, -11.87, -13.99, -3.9, 3.92, 10.04, 12.59, 8.8, 4.55, 1.97, 2.94, 3.07, 2.81, 1.25, 0.0, 0.0, 0.0, 0.0, 0.0, 3.47, 9.8, 4.24, 0.0, 0.0, 0.0, 0.0, -10.41, -10.41, -10.41, -10.41, -10.51, -10.51, -10.51, -9.66, -9.66, -9.66, -9.66, -9.66, -9.66, -9.66, -9.66, -9.42, -9.42, -9.42, -9.08, -8.82, -8.82, -8.82, -8.82, -8.53, -8.53, -8.53, -8.54, -8.2, -7.9, -7.9, -7.54, -7.24, -6.97, -6.87, -6.87, -6.45, -6.45, -6.76, -6.29, -6.04, -6.36, -5.62, -5.95, -6.44, -6.11, -5.86, -5.41, -5.06, -5.63, -5.36, -5.36, -5.2, -5.2, -5.2, -4.94, -5.44, -3.6, 0.0, 0.0, 0.0, 0.0, 2.83, 2.83, 4.8, 4.4, 4.4, 4.6, 7.59, 9.75, 11.18, 10.0, 0.0, -10.4, -12.58, -12.89, -13.59, -6.28, 1.69, 10.27, 12.76, 13.11, 13.14, 9.16, 7.11, 4.16, 3.12, 1.77, 0.0, -2.02, -3.47, -2.28, -4.38, 0.0, 0.0, 0.0, 0.0, 0.0, 0.0, -10.41, -10.41, -10.41, -10.41, -10.15, -9.94, -9.94, -9.94, -9.66, -9.66, -9.66, -9.66, -9.42, -9.42, -9.42, -9.42, -9.42, -9.08, -9.08, -8.82, -8.82, -8.82, -8.53, -8.85, -8.85, -8.85, -8.85, -8.2, -8.2, -7.9, -7.9, -7.54, -7.26, -6.87, -6.87, -6.45, -6.76, -6.76, -6.29, -6.04, -6.36, -6.11, -5.62, -5.62, -5.95, -5.95, -5.41, -4.92, -5.06, -4.78, -4.98, -5.46, -5.2, -5.2, -5.2, -4.71, -3.15, 0.0, 0.0, 0.0, 0.0, 2.83, 2.83, 2.69, 4.8, 4.4, 4.4, 6.64, 7.27, 9.6, 8.22, 0.0, -5.0, -10.01, -10.47, -10.12, -7.2, 0.0, 4.78, 11.8, 17.38, 17.34, 13.48, 8.07, 7.23, 5.64, 4.96, 1.47, -1.83, -4.24, -6.4, -12.52, -12.96, -5.8, 0.0, 0.0, 0.0, 0.0, -10.41, -10.41, -10.41, -10.41, -10.23, -9.86, -9.59, -9.94, -9.94, -9.42, -9.42, -9.42, -9.42, -9.42, -9.42, -9.42, -9.08, -9.08, -8.82, -8.82, -8.82, -8.82, -8.53, -8.53, -8.85, -8.85, -8.52, -8.2, -8.2, -7.9, -7.9, -7.54, -7.26, -7.26, -6.87, -6.87, -6.76, -6.76, -6.29, -6.29, -6.36, -6.36, -5.86, -5.62, -5.95, -5.41, -5.41, -4.92, -4.92, -5.06, -4.78, -4.98, -4.98, -5.2, -5.2, -3.8, -1.67, -1.58, 0.0, 0.0, 0.0, 2.06, 2.17, 2.28, 2.17, 4.6, 4.4, 4.0, 0.0, 4.6, 0.0, -4.8, -5.2, -6.94, -3.25, 0.0, 0.0, 0.0, 1.48, 8.6, 14.81, 16.47, 11.84, 9.43, 8.61, 7.04, 5.81, 3.62, 0.0, -4.38, -13.41, -10.8, -12.52, 0.0, 0.0, 0.0, 0.0, 0.0, -10.68, -10.68, -10.04, -9.86, -9.86, -9.86, -9.59, -9.37, -9.37, -9.08, -9.08, -9.08, -9.08, -9.08, -9.08, -9.08, -9.08, -8.82, -8.82, -8.82, -8.82, -8.53, -8.53, -8.53, -8.53, -8.85, -8.52, -8.52, -8.2, -7.9, -7.9, -7.54, -7.26, -7.26, -6.87, -6.87, -6.76, -6.76, -6.29, -6.04, -6.36, -6.36, -5.86, -5.86, -5.95, -5.41, -5.41, -4.92, -4.92, -4.92, -5.06, -4.2, -4.56, -4.34, -3.8, -3.35, -2.69, -1.32, -1.58, 0.0, 0.0, 0.0, 2.06, 2.17, 2.17, 0.0, 0.0, 0.0, 0.0, 0.0, -3.25, -5.0, -5.2, -3.96, 0.0, 0.0, 0.0, 0.0, 3.49, 8.77, 11.04, 11.04, 11.0, 12.63, 11.65, 8.2, 4.95, 4.66, 13.86, -5.8, -3.04, -0.0, -0.0, 0.0, 0.0, 0.0, 0.0, 0.0, -10.3, -10.3, -10.3, -10.13, -9.86, -9.86, -9.86, -9.37, -9.37, -9.37, -9.08, -9.08, -9.08, -9.08, -9.08, -8.82, -8.82, -8.82, -8.82, -8.82, -8.82, -8.53, -8.53, -8.53, -8.53, -8.85, -8.52, -8.52, -7.9, -7.9, -7.9, -7.26, -7.26, -7.26, -6.87, -7.18, -6.76, -6.5, -6.04, -6.04, -6.36, -5.86, -5.86, -5.86, -5.86, -5.41, -5.41, -5.52, -4.92, -4.92, -4.71, -4.71, -4.2, -4.0, -3.63, -2.98, -2.33, -2.21, -1.32, 0.0, 0.0, 0.0, 0.0, 2.17, 2.17, 0.0, 0.0, 4.2, 4.4, 4.4, 4.6, 0.0, 0.0, 0.0, 0.0, 0.0, 0.0, 2.35, 5.81, 9.09, 8.03, 7.92, 12.81, 16.9, 15.7, 9.76, 5.99, 10.79, 2.54, -2.06, -2.45, -0.0, -0.0, 0.0, -7.9, -4.8, -4.8, -4.8, -10.3, -10.3, -10.13, -10.13, -10.13, -9.86, -9.86, -9.66, -9.37, -9.37, -9.08, -9.08, -8.82, -8.82, -8.82, -8.82, -8.82, -8.82, -8.82, -8.82, -8.53, -8.53, -8.53, -8.53, -8.53, -8.21, -8.21, -8.21, -7.9, -7.9, -7.54, -7.26, -7.26, -7.56, -7.18, -7.18, -6.5, -6.5, -6.04, -6.04, -6.36, -5.86, -5.86, -5.86, -5.86, -5.63, -5.41, -5.41, -5.52, -4.92, -4.71, -4.71, -4.5, -3.7, -3.32, -2.69, -2.98, -2.21, -1.32, -1.32, 0.0, 0.0, 0.0, 0.0, 1.67, 0.0, 4.0, 4.2, 5.21, 5.46, 3.11, 3.25, 0.0, 0.0, 0.0, 0.0, 0.0, 3.25, 7.36, 8.18, 7.0, 7.4, 12.88, 16.29, 15.7, 9.4, 7.59, 9.97, 10.4, 6.94, 3.82, -0.0, -0.0, -10.28, -6.95, 0.0, 0.0, 0.0, -10.3, -10.13, -10.13, -10.13, -9.76, -9.5, -9.5, -9.66, -9.66, -9.37, -9.37, -8.82, -8.82, -8.82, -8.82, -8.82, -8.82, -8.82, -8.82, -8.53, -8.53, -8.53, -8.53, -8.53, -8.21, -8.21, -8.21, -8.21, -8.21, -7.9, -7.26, -7.56, -7.56, -6.9, -6.9, -6.9, -6.5, -6.5, -6.5, -6.04, -6.04, -6.36, -5.86, -5.86, -5.86, -6.2, -5.41, -5.41, -5.52, -5.52, -4.92, -4.71, -4.5, -4.0, -3.32, -3.45, -2.98, -1.95, -2.21, -1.32, -1.32, 0.0, 0.0, 0.0, 0.0, 0.0, 4.0, 4.2, 4.2, 3.11, 3.11, 5.46, 0.0, 0.0, 0.0, 0.0, 0.0, 4.1, 5.15, 6.6, 5.81, 7.32, 10.18, 10.08, 10.13, 1.87, 10.12, 10.41, 10.41, 11.18, 11.62, 11.62, 0.0, 0.0, 10.28, 9.54, 9.54, 9.54, -10.13, -9.86, -10.13, -9.76, -9.76, -9.76, -9.5, -9.3, -9.3, -9.3, -9.02, -9.12, -8.82, -8.82, -8.82, -8.82, -8.82, -8.82, -8.53, -8.53, -8.53, -8.53, -8.53, -8.53, -8.21, -8.21, -8.21, -8.21, -8.21, -7.91, -7.56, -7.56, -7.27, -6.9, -6.9, -6.9, -6.5, -6.5, -6.5, -6.04, -6.04, -6.04, -5.86, -5.86, -5.86, -6.2, -5.95, -5.41, -5.41, -5.52, -5.52, -4.71, -4.71, -3.7, -3.32, -3.15, -2.69, -2.83, -2.21, -2.21, -1.32, 0.0, 0.0, 0.0, 0.0, 1.73, 0.0, 0.0, 2.97, 3.11, 2.49, 3.25, 2.49, 0.0, 0.0, 0.0, 0.0, 0.0, 3.25, 2.72, 4.52, 5.63, 7.1, 3.33, 0.0, 0.0, 5.09, 11.45, 9.6, 10.18, 11.18, 11.18, 11.62, 11.18, 9.6, 9.13, 9.13, 9.13, -9.86, -9.86, -9.86, -9.5, -9.76, -9.58, -9.3, -9.3, -9.3, -9.3, -9.3, -9.37, -9.12, -8.82, -8.82, -8.82, -8.82, -8.82, -8.53, -8.53, -8.53, -8.53, -8.53, -8.21, -8.21, -8.21, -8.21, -7.91, -7.91, -7.56, -7.56, -7.27, -6.9, -6.9, -6.9, -6.81, -6.81, -6.81, -6.81, -6.5, -6.04, -6.04, -6.04, -5.86, -5.86, -6.2, -5.95, -5.95, -5.41, -5.52, -5.52, -4.71, -4.71, -3.7, -4.0, -3.15, -3.45, -2.98, -1.95, -2.21, -1.07, -1.25, 0.0, 0.0, 0.0, 0.0, 0.0, 0.0, 0.0, 0.0, 0.0, 0.0, 0.0, 0.0, 0.0, 0.0, 0.0, 0.0, 0.0, 0.0, 2.63, 4.38, 4.05, 0.0, 0.0, 0.0, 0.0, 0.0, 0.0, -0.0, 7.9, 10.84, 11.28, 10.4, 9.2, 8.93, 8.93, 8.93, -9.86, -9.86, -9.86, -9.5, -9.5, -9.3, -9.3, -9.3, -9.3, -9.3, -9.3, -9.66, -9.12, -9.12, -8.82, -8.82, -8.53, -8.53, -8.53, -8.53, -8.53, -8.53, -8.53, -8.21, -7.91, -7.91, -7.91, -7.91, -7.91, -7.56, -7.27, -7.27, -6.9, -6.9, -6.9, -6.81, -6.81, -6.81, -6.81, -6.5, -6.04, -6.04, -6.04, -6.36, -5.86, -5.86, -6.2, -5.95, -5.95, -5.18, -5.52, -5.28, -4.5, -3.7, -4.0, -3.15, -3.45, -2.69, -2.83, -2.21, -2.09, -1.07, -1.25, 0.0, 0.0, 0.0, 0.0, 0.0, 0.0, 0.0, -3.25, -5.7, -2.49, 0.0, 7.27, 0.0, 0.0, -3.82, -3.96, -3.96, 0.0, 3.36, 3.59, 3.27, 4.18, 1.44, -3.69, -12.96, -12.07, -0.0, 7.9, 9.3, 10.0, 9.58, 8.93, 8.93, 8.93, 8.93, -9.86, -9.86, -9.86, -9.5, -9.3, -9.3, -9.3, -9.3, -9.3, -9.3, -9.3, -9.66, -9.66, -9.12, -9.12, -8.82, -8.53, -8.53, -8.53, -8.53, -8.53, -8.53, -8.53, -7.91, -7.91, -7.91, -7.91, -7.91, -7.27, -7.27, -7.27, -6.9, -6.9, -6.9, -7.22, -6.81, -6.81, -6.81, -6.81, -6.81, -6.5, -6.04, -6.04, -6.36, -6.36, -5.86, -5.86, -5.95, -5.95, -5.41, -5.18, -5.52, -4.5, -4.5, -4.0, -3.8, -3.15, -3.45, -2.83, -1.95, -2.21, -1.07, -1.25, -1.25, 0.0, 0.0, 0.0, 0.0, 0.0, -4.8, -4.8, -5.95, -3.39, 0.0, 3.11, 4.4, 0.0, -8.22, -10.41, -8.85, -8.85, 0.0, 7.4, 10.8, 10.13, 6.64, -13.86, -10.18, -7.59, 3.53, 7.9, 9.97, 9.3, 9.3, 9.7, 8.54, 8.54, 8.54, -10.13, -10.13, -9.5, -9.5, -9.3, -9.3, -9.3, -9.3, -9.3, -9.3, -9.3, -9.3, -9.3, -9.42, -9.12, -9.12, -8.22, -8.22, -8.22, -8.22, -8.22, -8.22, -8.22, -7.91, -7.91, -7.91, -7.6, -7.27, -7.27, -7.27, -7.27, -6.9, -6.9, -6.9, -6.81, -6.81, -6.81, -6.81, -6.81, -6.81, -6.5, -6.5, -5.8, -6.11, -6.11, -6.11, -5.62, -5.62, -5.95, -5.41, -5.18, -5.18, -4.5, -4.5, -3.7, -4.0, -3.15, -3.45, -2.54, -2.83, -1.95, -2.21, -1.14, -1.32, -1.32, -1.58, -1.67, -1.67, -1.67, -3.39, -7.59, -4.8, -3.39, 0.0, 0.0, 0.0, 0.0, -7.9, -9.67, -11.45, -11.87, -6.4, 0.0, 7.8, 9.05, 0.0, -16.09, -9.67, 3.53, 6.71, 8.22, 9.86, 10.16, 10.09, 9.7, 9.2, 9.2, 9.2, -9.76, -9.76, -9.5, -9.5, -9.3, -9.3, -9.3, -9.3, -9.3, -9.3, -9.3, -9.3, -9.3, -9.08, -8.78, -8.78, -8.78, -8.22, -8.22, -8.22, -8.22, -8.22, -7.91, -7.91, -7.91, -7.6, -7.27, -7.27, -7.27, -7.27, -6.9, -6.9, -6.9, -6.63, -6.54, -6.54, -6.81, -6.81, -6.81, -6.5, -6.5, -5.8, -5.8, -6.11, -6.11, -6.11, -5.62, -5.62, -5.62, -5.41, -5.18, -4.4, -4.2, -4.5, -3.7, -4.0, -3.15, -3.15, -2.69, -2.54, -1.95, -1.95, -2.21, -2.21, -2.54, -2.69, -3.15, -2.69, -2.69, -5.7, -7.27, -7.59, -4.6, 0.0, 0.0, 0.0, -3.11, -5.7, -8.93, -11.28, -12.96, -12.39, -4.95, 0.0, 0.0, 0.0, -7.14, -13.59, 7.9, 7.9, 8.22, 9.17, 10.8, 10.88, 10.0, 10.21, 10.21, 10.21, -9.76, -9.76, -9.5, -9.3, -9.3, -9.3, -9.3, -9.3, -9.3, -9.3, -9.08, -9.08, -9.08, -9.08, -9.08, -8.78, -8.78, -8.78, -8.22, -8.22, -8.22, -7.91, -7.91, -7.6, -7.6, -7.6, -7.27, -7.27, -7.27, -6.63, -6.63, -6.63, -6.63, -6.63, -6.24, -6.24, -6.24, -6.5, -6.5, -6.5, -6.5, -5.8, -6.11, -6.11, -6.11, -6.11, -5.62, -5.62, -5.62, -5.09, -4.87, -4.96, -4.4, -4.2, -3.7, -3.7, -3.15, -3.15, -2.44, -2.69, -2.54, -2.83, -1.95, -2.06, -2.33, -2.33, -2.83, -4.0, -4.0, -5.7, -5.7, -8.55, -8.8, -8.4, -5.21, -5.21, -5.21, -5.21, -7.27, -10.4, -11.2, -11.99, -10.43, -6.47, -2.36, 0.0, 0.0, 0.0, 3.04, 11.62, 9.3, 8.93, 10.8, 11.3, 11.03, 11.03, 11.03, 11.03, -9.76, -9.76, -9.3, -9.3, -9.3, -9.3, -9.3, -9.3, -9.08, -9.08, -9.08, -9.08, -9.08, -9.08, -9.08, -8.78, -8.78, -8.78, -8.52, -8.22, -8.22, -7.91, -7.6, -7.6, -7.6, -7.27, -7.27, -7.27, -6.98, -6.63, -6.63, -6.63, -6.63, -6.63, -6.24, -6.24, -6.24, -6.24, -6.24, -6.24, -5.8, -5.8, -6.11, -6.11, -6.11, -5.62, -5.62, -5.62, -5.62, -5.09, -4.87, -4.66, -4.4, -4.2, -3.44, -3.7, -2.9, -2.9, -3.15, -3.15, -3.45, -2.69, -2.98, -2.98, -2.06, -3.35, -3.52, -3.52, -4.44, -4.44, -5.21, -9.3, -9.75, -8.91, -8.91, -6.64, -6.64, -5.46, -5.7, -6.45, -5.6, -9.48, -8.85, -7.4, -4.08, -1.97, 0.0, 1.23, 2.35, 3.25, 6.94, 11.71, 12.04, 12.66, 11.84, 11.45, 11.45, 11.45, -9.58, -9.58, -9.58, -9.3, -9.3, -9.3, -9.3, -9.3, -9.08, -9.08, -9.08, -9.08, -9.08, -9.08, -9.08, -8.78, -8.78, -8.78, -8.78, -8.19, -7.9, -7.9, -7.6, -7.6, -7.6, -7.27, -7.27, -7.27, -6.98, -6.63, -6.63, -6.63, -6.63, -6.24, -6.24, -6.24, -6.24, -6.24, -6.24, -5.8, -5.8, -5.8, -6.11, -6.11, -5.62, -5.62, -5.62, -5.62, -5.09, -5.09, -4.87, -4.66, -4.12, -4.2, -3.61, -3.44, -3.7, -2.9, -2.9, -2.9, -3.15, -3.45, -2.69, -2.98, -2.98, -2.98, -3.14, -3.52, -4.44, -4.44, -4.66, -9.3, -9.75, -10.18, -8.91, -6.95, -6.95, -4.4, -4.6, -4.8, -3.82, -7.19, -7.36, -7.0, -5.53, -1.97, 0.0, 2.28, 3.0, 2.9, 2.24, 4.65, 11.91, 12.52, 12.47, 11.84, 11.84, 11.84, -9.58, -9.58, -9.58, -9.3, -8.94, -8.94, -9.3, -9.08, -9.08, -9.08, -9.08, -9.08, -9.08, -9.08, -9.08, -8.45, -8.45, -8.19, -8.19, -8.19, -8.19, -7.9, -7.9, -7.6, -7.6, -7.27, -7.27, -7.27, -6.98, -6.63, -6.63, -6.63, -6.63, -6.24, -6.24, -6.24, -6.24, -6.24, -6.24, -5.8, -5.8, -5.8, -6.11, -5.62, -5.62, -5.62, -5.62, -5.09, -5.09, -4.87, -4.87, -4.66, -4.12, -4.2, -4.2, -3.44, -3.44, -3.44, -2.83, -2.9, -2.9, -3.15, -2.69, -2.69, -2.69, -2.69, -3.14, -4.0, -4.0, -4.0, -4.66, -6.01, -7.33, -9.67, -8.91, -6.95, -5.9, -4.4, -4.6, -4.8, -5.2, -7.78, -8.66, -7.32, -5.4, -1.78, 1.61, 3.68, 4.3, 4.34, 4.38, 5.45, 9.17, 12.42, 12.52, 12.42, 12.42, 12.42, -9.58, -9.58, -9.58, -9.3, -8.94, -8.94, -9.3, -9.08, -9.08, -9.08, -9.08, -9.08, -9.08, -9.08, -9.08, -8.45, -8.45, -8.19, -8.19, -8.19, -8.19, -7.9, -7.9, -7.6, -7.6, -7.27, -7.27, -7.27, -6.98, -6.63, -6.63, -6.63, -6.63, -6.24, -6.24, -6.24, -6.24, -6.24, -6.24, -5.8, -5.8, -5.8, -6.11, -5.62, -5.62, -5.62, -5.62, -5.09, -5.09, -4.87, -4.87, -4.66, -4.12, -4.2, -4.2, -3.44, -3.44, -3.44, -2.83, -2.9, -2.9, -3.15, -2.69, -2.69, -2.69, -2.69, -3.14, -4.0, -4.0, -4.0, -4.66, -6.01, -7.33, -9.67, -8.91, -6.95, -5.9, -4.4, -4.6, -4.8, -5.2, -6.44, -7.44, -7.1, -5.09, -1.67, 0.0, 4.12, 4.95, 5.09, 5.64, 5.99, 8.31, 12.45, 12.52, 12.07, 12.07, 12.07]}]